| time (UTC) | temp F | wind direction | speed MPH | gust MPH | rain 1hr in | rain 24hr in | rain mn in | humidity % | barometer mb |
| 20260506233402 | 46 | 338 | 2.0 | 4.0 | 0.00 | 0.00 | 0.00 | 93 | 1011.5 |
| 20260506233302 | 46 | 338 | 1.0 | 4.0 | 0.00 | 0.00 | 0.00 | 93 | 1011.4 |
| 20260506233213 | 46 | 338 | 2.0 | 4.0 | 0.00 | 0.00 | 0.00 | 92 | 11.2 |
| 20260506233211 | 46 | 338 | 2.0 | 4.0 | 0.00 | 0.00 | 0.00 | 93 | 1011.5 |
| 20260506233202 | 46 | 355 | 1.0 | 2.0 | 0.00 | 0.00 | 0.00 | 93 | 1011.4 |
| 20260506232803 | 46 | 355 | 1.0 | 4.0 | 0.00 | 0.00 | 0.00 | 93 | 1011.4 |
| 20260506232503 | 46 | 355 | 2.0 | 3.0 | 0.00 | 0.00 | 0.00 | 93 | 1011.4 |
| 20260506232403 | 46 | 351 | 1.0 | 3.0 | 0.00 | 0.00 | 0.00 | 93 | 1011.4 |
| 20260506232306 | 46 | 351 | 2.0 | 3.0 | 0.00 | 0.00 | 0.00 | 93 | 1011.4 |
| 20260506232213 | 46 | 351 | 1.0 | 4.0 | 0.00 | 0.00 | 0.00 | 92 | 11.2 |
| 20260506232211 | 46 | 351 | 1.0 | 4.0 | 0.00 | 0.00 | 0.00 | 93 | 1011.4 |
| 20260506232003 | 46 | 346 | 2.0 | 4.0 | 0.00 | 0.00 | 0.00 | 93 | 1011.4 |
| 20260506231902 | 46 | 27 | 2.0 | 4.0 | 0.00 | 0.00 | 0.00 | 93 | 1011.4 |
| 20260506231802 | 46 | 27 | 1.0 | 4.0 | 0.00 | 0.00 | 0.00 | 93 | 1011.3 |
| 20260506231213 | 46 | 31 | 2.0 | 3.0 | 0.00 | 0.00 | 0.00 | 92 | 11.1 |
| 20260506231211 | 46 | 31 | 2.0 | 3.0 | 0.00 | 0.00 | 0.00 | 93 | 1011.4 |
| 20260506231003 | 46 | 31 | 1.0 | 3.0 | 0.00 | 0.00 | 0.00 | 93 | 1011.3 |
| 20260506230703 | 46 | 31 | 2.0 | 3.0 | 0.00 | 0.00 | 0.00 | 93 | 1011.3 |
| 20260506230504 | 46 | 31 | 1.0 | 3.0 | 0.00 | 0.00 | 0.00 | 93 | 1011.3 |
| 20260506230403 | 46 | 34 | 2.0 | 3.0 | 0.00 | 0.00 | 0.00 | 93 | 1011.3 |
| 20260506230303 | 46 | 34 | 1.0 | 4.0 | 0.00 | 0.00 | 0.00 | 93 | 1011.3 |
| 20260506230103 | 46 | 30 | 1.0 | 4.0 | 0.00 | 0.00 | 0.00 | 93 | 1011.3 |
| 20260506230004 | 46 | 34 | 2.0 | 4.0 | 0.00 | 0.00 | 0.00 | 93 | 1011.3 |
| 20260506225803 | 46 | 27 | 2.0 | 4.0 | 0.00 | 0.00 | 0.00 | 93 | 1011.2 |
| 20260506225702 | 46 | 26 | 2.0 | 4.0 | 0.00 | 0.00 | 0.00 | 93 | 1011.3 |
| 20260506225603 | 46 | 26 | 1.0 | 4.0 | 0.00 | 0.00 | 0.00 | 93 | 1011.2 |
| 20260506225503 | 46 | 34 | 2.0 | 3.0 | 0.00 | 0.00 | 0.00 | 93 | 1011.2 |
| 20260506225403 | 46 | 34 | 1.0 | 5.0 | 0.00 | 0.00 | 0.00 | 93 | 1011.2 |
| 20260506225305 | 46 | 34 | 2.0 | 5.0 | 0.00 | 0.00 | 0.00 | 93 | 1011.2 |
| 20260506225213 | 46 | 34 | 1.0 | 5.0 | 0.00 | 0.00 | 0.00 | 92 | 11.0 |
| 20260506225210 | 46 | 34 | 1.0 | 5.0 | 0.00 | 0.00 | 0.00 | 93 | 1011.2 |
| 20260506225203 | 46 | 30 | 2.0 | 5.0 | 0.00 | 0.00 | 0.00 | 94 | 1011.2 |
| 20260506225103 | 46 | 30 | 3.0 | 5.0 | 0.00 | 0.00 | 0.00 | 94 | 1011.2 |
| 20260506225003 | 46 | 30 | 2.0 | 5.0 | 0.00 | 0.00 | 0.00 | 94 | 1011.1 |
| 20260506224902 | 46 | 34 | 2.0 | 4.0 | 0.00 | 0.00 | 0.00 | 94 | 1011.2 |
| 20260506224505 | 46 | 34 | 2.0 | 6.0 | 0.00 | 0.00 | 0.00 | 94 | 1011.2 |
| 20260506224302 | 46 | 34 | 4.0 | 6.0 | 0.00 | 0.00 | 0.00 | 94 | 1011.1 |
| 20260506224213 | 46 | 34 | 3.0 | 6.0 | 0.00 | 0.00 | 0.00 | 93 | 10.9 |
| 20260506224211 | 46 | 34 | 3.0 | 6.0 | 0.00 | 0.00 | 0.00 | 94 | 1011.1 |
| 20260506224203 | 46 | 24 | 2.0 | 6.0 | 0.00 | 0.00 | 0.00 | 94 | 1011.2 |
| 20260506224103 | 46 | 27 | 2.0 | 5.0 | 0.00 | 0.00 | 0.00 | 94 | 1011.1 |
| 20260506223902 | 46 | 23 | 2.0 | 6.0 | 0.00 | 0.00 | 0.00 | 94 | 1011.1 |
| 20260506223702 | 46 | 14 | 3.0 | 8.0 | 0.00 | 0.00 | 0.00 | 94 | 1011.1 |
| 20260506223603 | 46 | 355 | 0.0 | 8.0 | 0.00 | 0.00 | 0.00 | 94 | 1011.1 |
| 20260506223503 | 46 | 26 | 3.0 | 8.0 | 0.00 | 0.00 | 0.00 | 94 | 1011.1 |
| 20260506223402 | 46 | 26 | 2.0 | 8.0 | 0.00 | 0.00 | 0.00 | 94 | 1011.1 |
| 20260506223213 | 46 | 31 | 2.0 | 9.0 | 0.00 | 0.00 | 0.00 | 93 | 10.9 |
| 20260506223210 | 46 | 31 | 2.0 | 9.0 | 0.00 | 0.00 | 0.00 | 94 | 1011.1 |
| 20260506223202 | 46 | 31 | 3.0 | 8.0 | 0.00 | 0.00 | 0.00 | 94 | 1011.1 |
| 20260506223103 | 46 | 24 | 3.0 | 8.0 | 0.00 | 0.00 | 0.00 | 94 | 1011.1 |
| 20260506223005 | 46 | 5 | 3.0 | 5.0 | 0.00 | 0.00 | 0.00 | 94 | 1011.0 |
| 20260506222903 | 46 | 360 | 2.0 | 5.0 | 0.00 | 0.00 | 0.00 | 94 | 1011.1 |
| 20260506222802 | 46 | 355 | 2.0 | 5.0 | 0.00 | 0.00 | 0.00 | 94 | 1011.0 |
| 20260506222703 | 46 | 355 | 3.0 | 5.0 | 0.00 | 0.00 | 0.00 | 94 | 1011.0 |
| 20260506222603 | 46 | 51 | 4.0 | 8.0 | 0.00 | 0.00 | 0.00 | 94 | 1011.0 |
| 20260506222503 | 46 | 37 | 2.0 | 8.0 | 0.00 | 0.00 | 0.00 | 94 | 1011.0 |
| 20260506222403 | 46 | 24 | 3.0 | 8.0 | 0.00 | 0.00 | 0.00 | 94 | 1011.0 |
| 20260506222305 | 46 | 22 | 5.0 | 8.0 | 0.00 | 0.00 | 0.00 | 94 | 1010.9 |
| 20260506222203 | 46 | 34 | 3.0 | 8.0 | 0.00 | 0.00 | 0.00 | 94 | 1011.0 |
| 20260506222103 | 46 | 36 | 3.0 | 5.0 | 0.00 | 0.00 | 0.00 | 94 | 1010.9 |
| 20260506222004 | 46 | 44 | 3.0 | 5.0 | 0.00 | 0.00 | 0.00 | 94 | 1011.0 |
| 20260506221903 | 46 | 28 | 3.0 | 4.0 | 0.00 | 0.00 | 0.00 | 94 | 1010.9 |
| 20260506221803 | 46 | 36 | 1.0 | 4.0 | 0.00 | 0.00 | 0.00 | 94 | 1011.0 |
| 20260506221703 | 46 | 27 | 2.0 | 4.0 | 0.00 | 0.00 | 0.00 | 94 | 1011.0 |
| 20260506221603 | 46 | 27 | 3.0 | 8.0 | 0.00 | 0.00 | 0.00 | 94 | 1010.9 |
| 20260506221505 | 46 | 28 | 3.0 | 8.0 | 0.00 | 0.00 | 0.00 | 94 | 1010.9 |
| 20260506221402 | 46 | 15 | 3.0 | 8.0 | 0.00 | 0.00 | 0.00 | 94 | 1010.8 |
| 20260506221302 | 46 | 28 | 6.0 | 8.0 | 0.00 | 0.00 | 0.00 | 94 | 1010.9 |
| 20260506221213 | 46 | 28 | 3.0 | 8.0 | 0.00 | 0.00 | 0.00 | 93 | 10.6 |
| 20260506221210 | 46 | 28 | 3.0 | 8.0 | 0.00 | 0.00 | 0.00 | 94 | 1010.9 |
| 20260506221102 | 46 | 36 | 3.0 | 5.0 | 0.00 | 0.00 | 0.00 | 94 | 1010.8 |
| 20260506221004 | 46 | 36 | 2.0 | 5.0 | 0.00 | 0.00 | 0.00 | 94 | 1010.8 |
| 20260506220802 | 46 | 35 | 2.0 | 5.0 | 0.00 | 0.00 | 0.00 | 94 | 1010.8 |
| 20260506220703 | 46 | 35 | 3.0 | 5.0 | 0.00 | 0.00 | 0.00 | 94 | 1010.8 |
| 20260506220604 | 46 | 24 | 2.0 | 5.0 | 0.00 | 0.00 | 0.00 | 94 | 1010.8 |
| 20260506220403 | 46 | 30 | 2.0 | 5.0 | 0.00 | 0.00 | 0.00 | 94 | 1010.7 |
| 20260506220302 | 46 | 28 | 3.0 | 5.0 | 0.00 | 0.00 | 0.00 | 94 | 1010.6 |
| 20260506220202 | 46 | 30 | 3.0 | 5.0 | 0.00 | 0.00 | 0.00 | 94 | 1010.7 |
| 20260506215902 | 46 | 30 | 2.0 | 5.0 | 0.00 | 0.70 | 0.70 | 94 | 1010.6 |
| 20260506215702 | 46 | 30 | 2.0 | 4.0 | 0.00 | 0.70 | 0.70 | 94 | 1010.7 |
| 20260506215504 | 46 | 23 | 0.0 | 6.0 | 0.00 | 0.70 | 0.70 | 94 | 1010.6 |
| 20260506215402 | 46 | 360 | 3.0 | 9.0 | 0.00 | 0.70 | 0.70 | 94 | 1010.6 |
| 20260506215305 | 46 | 11 | 2.0 | 9.0 | 0.00 | 0.70 | 0.70 | 94 | 1010.6 |
| 20260506215214 | 46 | 14 | 3.0 | 9.0 | 0.00 | 0.78 | 0.78 | 93 | 10.4 |
| 20260506215210 | 46 | 11 | 3.0 | 6.0 | 0.00 | 0.70 | 0.70 | 94 | 1010.6 |
| 20260506215004 | 46 | 355 | 5.0 | 9.0 | 0.00 | 0.70 | 0.70 | 94 | 1010.6 |
| 20260506214802 | 46 | 13 | 4.0 | 8.0 | 0.00 | 0.70 | 0.70 | 94 | 1010.5 |
| 20260506214504 | 46 | 15 | 5.0 | 8.0 | 0.00 | 0.70 | 0.70 | 94 | 1010.5 |
| 20260506214302 | 46 | 34 | 4.0 | 8.0 | 0.00 | 0.70 | 0.70 | 94 | 1010.5 |
| 20260506214214 | 46 | 32 | 4.0 | 8.0 | 0.00 | 0.78 | 0.78 | 93 | 10.3 |
| 20260506214210 | 46 | 32 | 3.0 | 8.0 | 0.00 | 0.70 | 0.70 | 94 | 1010.5 |
| 20260506214102 | 46 | 28 | 3.0 | 4.0 | 0.00 | 0.70 | 0.70 | 95 | 1010.5 |
| 20260506213903 | 46 | 31 | 4.0 | 6.0 | 0.00 | 0.70 | 0.70 | 95 | 1010.4 |
| 20260506213702 | 46 | 38 | 4.0 | 6.0 | 0.00 | 0.70 | 0.70 | 95 | 1010.4 |
| 20260506213504 | 47 | 36 | 3.0 | 6.0 | 0.00 | 0.70 | 0.70 | 95 | 1010.3 |
| 20260506213305 | 47 | 24 | 0.0 | 5.0 | 0.00 | 0.70 | 0.70 | 95 | 1010.4 |
| 20260506213210 | 47 | 18 | 3.0 | 6.0 | 0.00 | 0.70 | 0.70 | 95 | 1010.4 |
| 20260506213203 | 47 | 22 | 4.0 | 6.0 | 0.00 | 0.70 | 0.70 | 95 | 1010.4 |
| 20260506213005 | 47 | 29 | 0.0 | 7.0 | 0.00 | 0.70 | 0.70 | 95 | 1010.4 |
| 20260506212902 | 47 | 22 | 3.0 | 7.0 | 0.00 | 0.70 | 0.70 | 95 | 1010.4 |
| 20260506212602 | 47 | 31 | 3.0 | 7.0 | 0.00 | 0.70 | 0.70 | 95 | 1010.4 |
| 20260506212504 | 47 | 20 | 3.0 | 5.0 | 0.00 | 0.70 | 0.70 | 95 | 1010.4 |
| 20260506212403 | 47 | 32 | 3.0 | 5.0 | 0.00 | 0.70 | 0.70 | 95 | 1010.4 |
| 20260506212210 | 47 | 15 | 3.0 | 5.0 | 0.00 | 0.70 | 0.70 | 95 | 1010.4 |
| 20260506212202 | 47 | 360 | 3.0 | 7.0 | 0.00 | 0.70 | 0.70 | 95 | 1010.4 |
| 20260506212004 | 47 | 22 | 0.0 | 7.0 | 0.00 | 0.70 | 0.70 | 95 | 1010.4 |
| 20260506211802 | 47 | 336 | 3.0 | 5.0 | 0.00 | 0.70 | 0.70 | 95 | 1010.3 |
| 20260506211505 | 47 | 331 | 4.0 | 4.0 | 0.00 | 0.70 | 0.70 | 95 | 1010.4 |
| 20260506211302 | 47 | 327 | 1.0 | 4.0 | 0.00 | 0.70 | 0.70 | 95 | 1010.3 |
| 20260506211213 | 47 | 327 | 3.0 | 4.0 | 0.00 | 0.70 | 0.70 | 95 | 1010.3 |
| 20260506211210 | 47 | 322 | 3.0 | 6.0 | 0.00 | 0.70 | 0.70 | 95 | 1010.3 |
| 20260506211203 | 47 | 349 | 2.0 | 5.0 | 0.00 | 0.70 | 0.70 | 95 | 1010.3 |
| 20260506210903 | 47 | 5 | 5.0 | 5.0 | 0.00 | 0.70 | 0.70 | 95 | 1010.3 |
| 20260506210703 | 47 | 339 | 4.0 | 6.0 | 0.00 | 0.70 | 0.70 | 95 | 1010.3 |
| 20260506210403 | 47 | 351 | 4.0 | 6.0 | 0.00 | 0.70 | 0.70 | 95 | 1010.3 |
| 20260506210302 | 47 | 343 | 2.0 | 5.0 | 0.00 | 0.70 | 0.70 | 95 | 1010.2 |
| 20260506210214 | 47 | 9 | 3.0 | 5.0 | 0.00 | 0.70 | 0.70 | 95 | 1010.3 |
| 20260506210210 | 47 | 343 | 2.0 | 5.0 | 0.00 | 0.70 | 0.70 | 95 | 1010.2 |
| 20260506210104 | 47 | 9 | 3.0 | 5.0 | 0.00 | 0.70 | 0.70 | 95 | 1010.3 |
| 20260506205903 | 47 | 350 | 3.0 | 5.0 | 0.00 | 0.70 | 0.70 | 95 | 1010.2 |
| 20260506205703 | 47 | 21 | 3.0 | 5.0 | 0.00 | 0.70 | 0.70 | 95 | 1010.2 |
| 20260506205503 | 47 | 342 | 0.0 | 5.0 | 0.00 | 0.70 | 0.70 | 95 | 1010.2 |
| 20260506205210 | 47 | 333 | 4.0 | 6.0 | 0.00 | 0.78 | 0.78 | 93 | 10.0 |
| 20260506205204 | 47 | 327 | 2.0 | 5.0 | 0.00 | 0.70 | 0.70 | 95 | 1010.2 |
| 20260506205004 | 47 | 342 | 0.0 | 5.0 | 0.00 | 0.70 | 0.70 | 95 | 1010.2 |
| 20260506204902 | 47 | 315 | 1.0 | 6.0 | 0.00 | 0.70 | 0.70 | 95 | 1010.2 |
| 20260506204602 | 47 | 321 | 3.0 | 6.0 | 0.00 | 0.70 | 0.70 | 95 | 1010.2 |
| 20260506204402 | 47 | 40 | 1.0 | 6.0 | 0.00 | 0.70 | 0.70 | 95 | 1010.2 |
| 20260506204210 | 47 | 336 | 2.0 | 5.0 | 0.00 | 0.70 | 0.70 | 95 | 1010.3 |
| 20260506204202 | 47 | 336 | 3.0 | 5.0 | 0.00 | 0.70 | 0.70 | 95 | 1010.2 |
| 20260506204004 | 47 | 345 | 0.0 | 5.0 | 0.00 | 0.70 | 0.70 | 95 | 1010.2 |
| 20260506203903 | 47 | 337 | 3.0 | 5.0 | 0.00 | 0.70 | 0.70 | 95 | 1010.2 |
| 20260506203703 | 47 | 355 | 2.0 | 5.0 | 0.00 | 0.70 | 0.70 | 95 | 1010.2 |
| 20260506203505 | 47 | 351 | 0.0 | 5.0 | 0.00 | 0.70 | 0.70 | 95 | 1010.3 |
| 20260506203402 | 47 | 360 | 2.0 | 5.0 | 0.00 | 0.70 | 0.70 | 95 | 1010.2 |
| 20260506203210 | 47 | 344 | 2.0 | 5.0 | 0.00 | 0.70 | 0.70 | 95 | 1010.2 |
| 20260506203103 | 47 | 348 | 2.0 | 4.0 | 0.00 | 0.70 | 0.70 | 95 | 1010.2 |
| 20260506203006 | 47 | 341 | 2.0 | 4.0 | 0.00 | 0.70 | 0.70 | 95 | 1010.2 |
| 20260506202802 | 47 | 328 | 1.0 | 6.0 | 0.00 | 0.70 | 0.70 | 95 | 1010.2 |
| 20260506202505 | 47 | 342 | 0.0 | 6.0 | 0.00 | 0.70 | 0.70 | 95 | 1010.1 |
| 20260506202306 | 47 | 17 | 2.0 | 3.0 | 0.00 | 0.70 | 0.70 | 95 | 1010.1 |
| 20260506202210 | 47 | 344 | 3.0 | 5.0 | 0.00 | 0.78 | 0.78 | 93 | 10.0 |
| 20260506202103 | 47 | 17 | 1.0 | 3.0 | 0.00 | 0.70 | 0.70 | 95 | 1010.1 |
| 20260506202004 | 47 | 17 | 3.0 | 4.0 | 0.00 | 0.70 | 0.70 | 95 | 1010.1 |
| 20260506201803 | 47 | 338 | 3.0 | 4.0 | 0.00 | 0.70 | 0.70 | 95 | 1010.1 |
| 20260506201604 | 47 | 338 | 4.0 | 4.0 | 0.00 | 0.70 | 0.70 | 95 | 1010.1 |
| 20260506201403 | 47 | 31 | 3.0 | 4.0 | 0.00 | 0.70 | 0.70 | 95 | 1010.1 |
| 20260506201211 | 47 | 19 | 2.0 | 8.0 | 0.00 | 0.70 | 0.70 | 95 | 1010.1 |
| 20260506201209 | 47 | 19 | 2.0 | 5.0 | 0.00 | 0.70 | 0.70 | 95 | 1010.1 |
| 20260506201203 | 47 | 19 | 2.0 | 8.0 | 0.00 | 0.70 | 0.70 | 95 | 1010.1 |
| 20260506201003 | 47 | 35 | 3.0 | 8.0 | 0.00 | 0.70 | 0.70 | 95 | 1010.0 |
| 20260506200902 | 47 | 37 | 3.0 | 8.0 | 0.00 | 0.70 | 0.70 | 95 | 1010.1 |
| 20260506200702 | 47 | 20 | 0.0 | 9.0 | 0.00 | 0.70 | 0.70 | 95 | 1010.0 |
| 20260506200403 | 47 | 19 | 1.0 | 9.0 | 0.00 | 0.70 | 0.70 | 95 | 1010.0 |
| 20260506200303 | 47 | 19 | 2.0 | 9.0 | 0.00 | 0.70 | 0.70 | 95 | 1010.0 |
| 20260506200210 | 47 | 18 | 2.0 | 8.0 | 0.00 | 0.70 | 0.70 | 95 | 1010.0 |
| 20260506195902 | 47 | 22 | 4.0 | 8.0 | 0.01 | 0.70 | 0.70 | 95 | 1010.0 |
| 20260506195702 | 47 | 12 | 2.0 | 5.0 | 0.01 | 0.70 | 0.70 | 95 | 1010.0 |
| 20260506195603 | 47 | 346 | 2.0 | 3.0 | 0.01 | 0.70 | 0.70 | 95 | 1010.0 |
| 20260506195402 | 47 | 347 | 3.0 | 3.0 | 0.01 | 0.70 | 0.70 | 95 | 1010.0 |
| 20260506195210 | 47 | 346 | 4.0 | 6.0 | 0.00 | 0.78 | 0.78 | 93 | 9.7 |
| 20260506195203 | 47 | 350 | 3.0 | 3.0 | 0.01 | 0.70 | 0.70 | 95 | 1010.0 |
| 20260506195004 | 47 | 344 | 1.0 | 5.0 | 0.01 | 0.70 | 0.70 | 95 | 1009.9 |
| 20260506194702 | 47 | 340 | 2.0 | 5.0 | 0.01 | 0.70 | 0.70 | 95 | 1009.9 |
| 20260506194504 | 47 | 15 | 1.0 | 3.0 | 0.01 | 0.70 | 0.70 | 95 | 1009.9 |
| 20260506194303 | 47 | 10 | 0.0 | 4.0 | 0.01 | 0.70 | 0.70 | 95 | 1009.9 |
| 20260506194214 | 47 | 10 | 2.0 | 4.0 | 0.01 | 0.70 | 0.70 | 95 | 1009.9 |
| 20260506194210 | 47 | 10 | 1.0 | 4.0 | 0.01 | 0.70 | 0.70 | 95 | 1009.9 |
| 20260506194004 | 47 | 9 | 2.0 | 6.0 | 0.01 | 0.70 | 0.70 | 95 | 1009.9 |
| 20260506193703 | 47 | 355 | 1.0 | 6.0 | 0.01 | 0.70 | 0.70 | 95 | 1009.8 |
| 20260506193504 | 47 | 355 | 2.0 | 3.0 | 0.01 | 0.70 | 0.70 | 95 | 1009.9 |
| 20260506193210 | 47 | 355 | 3.0 | 4.0 | 0.01 | 0.78 | 0.78 | 93 | 9.7 |
| 20260506193202 | 47 | 355 | 1.0 | 3.0 | 0.01 | 0.70 | 0.70 | 95 | 1009.9 |
| 20260506193004 | 47 | 355 | 2.0 | 4.0 | 0.01 | 0.70 | 0.70 | 95 | 1009.9 |
| 20260506192802 | 47 | 355 | 4.0 | 4.0 | 0.01 | 0.70 | 0.70 | 95 | 1009.8 |
| 20260506192702 | 47 | 340 | 3.0 | 4.0 | 0.01 | 0.70 | 0.70 | 95 | 1009.8 |
| 20260506192403 | 47 | 335 | 2.0 | 4.0 | 0.01 | 0.70 | 0.70 | 95 | 1009.8 |
| 20260506192213 | 47 | 335 | 2.0 | 4.0 | 0.01 | 0.70 | 0.70 | 95 | 1009.8 |
| 20260506192211 | 47 | 335 | 2.0 | 4.0 | 0.01 | 0.70 | 0.70 | 95 | 1009.7 |
| 20260506192203 | 47 | 335 | 0.0 | 4.0 | 0.01 | 0.70 | 0.70 | 95 | 1009.7 |
| 20260506192103 | 47 | 337 | 2.0 | 4.0 | 0.01 | 0.70 | 0.70 | 95 | 1009.7 |
| 20260506191803 | 47 | 336 | 2.0 | 4.0 | 0.01 | 0.70 | 0.70 | 95 | 1009.7 |
| 20260506191702 | 47 | 336 | 1.0 | 4.0 | 0.01 | 0.70 | 0.70 | 95 | 1009.6 |
| 20260506191504 | 47 | 340 | 3.0 | 4.0 | 0.01 | 0.70 | 0.70 | 95 | 1009.6 |
| 20260506191402 | 47 | 340 | 3.0 | 4.0 | 0.01 | 0.70 | 0.70 | 95 | 1009.7 |
| 20260506191211 | 47 | 340 | 2.0 | 4.0 | 0.01 | 0.70 | 0.70 | 95 | 1009.6 |
| 20260506191004 | 47 | 342 | 3.0 | 4.0 | 0.01 | 0.70 | 0.70 | 95 | 1009.6 |
| 20260506190903 | 47 | 341 | 3.0 | 4.0 | 0.01 | 0.70 | 0.70 | 94 | 1009.5 |
| 20260506190603 | 47 | 340 | 3.0 | 5.0 | 0.01 | 0.70 | 0.70 | 94 | 1009.5 |
| 20260506190212 | 47 | 325 | 4.0 | 9.0 | 0.01 | 0.70 | 0.70 | 95 | 1009.6 |
| 20260506190210 | 47 | 329 | 3.0 | 9.0 | 0.01 | 0.78 | 0.78 | 93 | 9.3 |
| 20260506185902 | 47 | 343 | 3.0 | 5.0 | 0.00 | 0.69 | 0.69 | 95 | 1009.5 |
| 20260506185702 | 47 | 337 | 3.0 | 5.0 | 0.00 | 0.69 | 0.69 | 95 | 1009.5 |
| 20260506185403 | 47 | 332 | 2.0 | 5.0 | 0.00 | 0.69 | 0.69 | 95 | 1009.5 |
| 20260506185212 | 47 | 360 | 3.0 | 5.0 | 0.00 | 0.69 | 0.69 | 95 | 1009.5 |
| 20260506185210 | 47 | 336 | 2.0 | 5.0 | 0.01 | 0.78 | 0.78 | 93 | 9.3 |
| 20260506185202 | 47 | 338 | 3.0 | 5.0 | 0.00 | 0.69 | 0.69 | 95 | 1009.5 |
| 20260506185005 | 47 | 348 | 3.0 | 5.0 | 0.00 | 0.69 | 0.69 | 95 | 1009.4 |
| 20260506184902 | 47 | 348 | 3.0 | 5.0 | 0.01 | 0.69 | 0.69 | 95 | 1009.4 |
| 20260506184802 | 47 | 355 | 3.0 | 5.0 | 0.01 | 0.69 | 0.69 | 95 | 1009.4 |
| 20260506184603 | 47 | 317 | 0.0 | 5.0 | 0.01 | 0.69 | 0.69 | 95 | 1009.4 |
| 20260506184504 | 47 | 318 | 3.0 | 5.0 | 0.01 | 0.69 | 0.69 | 95 | 1009.4 |
| 20260506184202 | 47 | 328 | 1.0 | 3.0 | 0.01 | 0.69 | 0.69 | 94 | 1009.4 |
| 20260506183403 | 47 | 328 | 2.0 | 3.0 | 0.01 | 0.69 | 0.69 | 94 | 1009.3 |
| 20260506183212 | 47 | 328 | 2.0 | 3.0 | 0.01 | 0.69 | 0.69 | 94 | 1009.3 |
| 20260506183209 | 47 | 328 | 3.0 | 4.0 | 0.01 | 0.77 | 0.77 | 92 | 9.1 |
| 20260506183005 | 47 | 328 | 2.0 | 2.0 | 0.01 | 0.69 | 0.69 | 94 | 1009.3 |
| 20260506182902 | 47 | 328 | 2.0 | 3.0 | 0.01 | 0.69 | 0.69 | 94 | 1009.2 |
| 20260506182703 | 47 | 328 | 1.0 | 3.0 | 0.01 | 0.69 | 0.69 | 94 | 1009.2 |
| 20260506182504 | 47 | 328 | 2.0 | 3.0 | 0.01 | 0.69 | 0.69 | 94 | 1009.2 |
| 20260506182404 | 47 | 328 | 2.0 | 4.0 | 0.01 | 0.69 | 0.69 | 94 | 1009.2 |
| 20260506182306 | 47 | 341 | 3.0 | 4.0 | 0.01 | 0.69 | 0.69 | 94 | 1009.1 |
| 20260506182212 | 47 | 341 | 3.0 | 4.0 | 0.01 | 0.69 | 0.69 | 94 | 1009.1 |
| 20260506182210 | 47 | 344 | 3.0 | 4.0 | 0.01 | 0.77 | 0.77 | 92 | 9.0 |
| 20260506182102 | 47 | 355 | 2.0 | 4.0 | 0.01 | 0.69 | 0.69 | 94 | 1009.2 |
| 20260506181703 | 47 | 355 | 2.0 | 4.0 | 0.01 | 0.69 | 0.69 | 94 | 1009.1 |
| 20260506181504 | 47 | 9 | 2.0 | 4.0 | 0.01 | 0.69 | 0.69 | 94 | 1009.1 |
| 20260506181402 | 47 | 360 | 2.0 | 4.0 | 0.01 | 0.69 | 0.69 | 94 | 1009.1 |
| 20260506181212 | 47 | 360 | 1.0 | 5.0 | 0.01 | 0.69 | 0.69 | 94 | 1009.0 |
| 20260506181210 | 47 | 355 | 2.0 | 4.0 | 0.01 | 0.77 | 0.77 | 92 | 8.9 |
| 20260506181202 | 47 | 360 | 2.0 | 5.0 | 0.01 | 0.69 | 0.69 | 94 | 1009.0 |
| 20260506180802 | 47 | 355 | 2.0 | 5.0 | 0.01 | 0.69 | 0.69 | 94 | 1009.1 |
| 20260506180702 | 47 | 10 | 2.0 | 4.0 | 0.02 | 0.69 | 0.69 | 94 | 1008.9 |
| 20260506180303 | 47 | 10 | 1.0 | 4.0 | 0.02 | 0.69 | 0.69 | 94 | 1008.9 |
| 20260506180211 | 47 | 10 | 1.0 | 4.0 | 0.02 | 0.69 | 0.69 | 94 | 1008.9 |
| 20260506180202 | 47 | 10 | 2.0 | 4.0 | 0.02 | 0.69 | 0.69 | 94 | 1008.9 |
| 20260506180006 | 47 | 10 | 3.0 | 4.0 | 0.02 | 0.69 | 0.69 | 94 | 1008.9 |
| 20260506175802 | 47 | 5 | 4.0 | 4.0 | 0.02 | 0.69 | 0.69 | 94 | 1008.8 |
| 20260506175602 | 47 | 9 | 1.0 | 4.0 | 0.02 | 0.69 | 0.69 | 94 | 1008.9 |
| 20260506175403 | 47 | 9 | 1.0 | 4.0 | 0.02 | 0.69 | 0.69 | 94 | 1008.8 |
| 20260506175305 | 47 | 9 | 2.0 | 4.0 | 0.02 | 0.69 | 0.69 | 94 | 1008.8 |
| 20260506175211 | 47 | 9 | 2.0 | 4.0 | 0.02 | 0.69 | 0.69 | 94 | 1008.8 |
| 20260506175202 | 47 | 9 | 2.0 | 4.0 | 0.02 | 0.69 | 0.69 | 94 | 1008.8 |
| 20260506174903 | 47 | 9 | 1.0 | 3.0 | 0.01 | 0.68 | 0.68 | 94 | 1008.8 |
| 20260506174602 | 47 | 9 | 2.0 | 3.0 | 0.01 | 0.68 | 0.68 | 94 | 1008.7 |
| 20260506174402 | 47 | 9 | 2.0 | 3.0 | 0.01 | 0.68 | 0.68 | 94 | 1008.7 |
| 20260506174003 | 47 | 9 | 3.0 | 4.0 | 0.01 | 0.68 | 0.68 | 94 | 1008.7 |
| 20260506173802 | 47 | 9 | 2.0 | 4.0 | 0.01 | 0.68 | 0.68 | 94 | 1008.7 |
| 20260506173603 | 47 | 9 | 0.0 | 4.0 | 0.01 | 0.68 | 0.68 | 94 | 1008.7 |
| 20260506173403 | 47 | 9 | 1.0 | 4.0 | 0.01 | 0.68 | 0.68 | 94 | 1008.6 |
| 20260506173210 | 47 | 9 | 1.0 | 4.0 | 0.01 | 0.76 | 0.76 | 92 | 8.4 |
| 20260506173203 | 47 | 9 | 2.0 | 4.0 | 0.01 | 0.68 | 0.68 | 94 | 1008.6 |
| 20260506173005 | 47 | 9 | 0.0 | 3.0 | 0.01 | 0.68 | 0.68 | 94 | 1008.6 |
| 20260506172903 | 47 | 360 | 2.0 | 3.0 | 0.01 | 0.68 | 0.68 | 94 | 1008.6 |
| 20260506172702 | 47 | 9 | 3.0 | 3.0 | 0.01 | 0.68 | 0.68 | 94 | 1008.5 |
| 20260506172403 | 47 | 9 | 2.0 | 7.0 | 0.01 | 0.68 | 0.68 | 94 | 1008.5 |
| 20260506172211 | 47 | 329 | 2.0 | 7.0 | 0.01 | 0.68 | 0.68 | 94 | 1008.5 |
| 20260506172004 | 47 | 11 | 1.0 | 7.0 | 0.01 | 0.68 | 0.68 | 93 | 1008.5 |
| 20260506171903 | 47 | 11 | 2.0 | 2.0 | 0.01 | 0.68 | 0.68 | 93 | 1008.5 |
| 20260506171702 | 47 | 11 | 2.0 | 4.0 | 0.01 | 0.68 | 0.68 | 93 | 1008.5 |
| 20260506171504 | 47 | 11 | 0.0 | 4.0 | 0.01 | 0.68 | 0.68 | 93 | 1008.5 |
| 20260506171403 | 47 | 360 | 3.0 | 6.0 | 0.01 | 0.68 | 0.68 | 93 | 1008.4 |
| 20260506171211 | 47 | 5 | 3.0 | 4.0 | 0.01 | 0.68 | 0.68 | 93 | 1008.4 |
| 20260506171102 | 47 | 9 | 2.0 | 6.0 | 0.01 | 0.68 | 0.68 | 93 | 1008.4 |
| 20260506170903 | 47 | 360 | 4.0 | 6.0 | 0.01 | 0.68 | 0.68 | 93 | 1008.4 |
| 20260506170702 | 47 | 360 | 3.0 | 4.0 | 0.01 | 0.68 | 0.68 | 93 | 1008.5 |
| 20260506170504 | 47 | 344 | 2.0 | 4.0 | 0.00 | 0.68 | 0.68 | 93 | 1008.4 |
| 20260506170302 | 47 | 19 | 1.0 | 4.0 | 0.00 | 0.68 | 0.68 | 93 | 1008.4 |
| 20260506170214 | 47 | 19 | 2.0 | 4.0 | 0.00 | 0.68 | 0.68 | 93 | 1008.4 |
| 20260506170210 | 47 | 9 | 3.0 | 8.0 | 0.00 | 0.68 | 0.68 | 93 | 1008.4 |
| 20260506170006 | 47 | 17 | 0.0 | 8.0 | 0.00 | 0.68 | 0.68 | 92 | 1008.4 |
| 20260506165802 | 48 | 337 | 4.0 | 8.0 | 0.00 | 0.68 | 0.68 | 93 | 1008.4 |
| 20260506165603 | 48 | 39 | 4.0 | 6.0 | 0.00 | 0.68 | 0.68 | 93 | 1008.5 |
| 20260506165503 | 48 | 345 | 4.0 | 6.0 | 0.00 | 0.68 | 0.68 | 93 | 1008.5 |
| 20260506165305 | 48 | 20 | 0.0 | 4.0 | 0.00 | 0.68 | 0.68 | 92 | 1008.4 |
| 20260506165210 | 47 | 20 | 2.0 | 8.0 | 0.01 | 0.76 | 0.76 | 91 | 8.2 |
| 20260506165104 | 48 | 360 | 3.0 | 4.0 | 0.00 | 0.68 | 0.68 | 92 | 1008.5 |
| 20260506164902 | 48 | 346 | 2.0 | 4.0 | 0.00 | 0.68 | 0.68 | 92 | 1008.4 |
| 20260506164802 | 48 | 34 | 2.0 | 4.0 | 0.00 | 0.68 | 0.68 | 92 | 1008.4 |
| 20260506164603 | 48 | 36 | 3.0 | 5.0 | 0.00 | 0.68 | 0.68 | 92 | 1008.4 |
| 20260506164403 | 48 | 36 | 5.0 | 6.0 | 0.00 | 0.68 | 0.68 | 92 | 1008.4 |
| 20260506164213 | 48 | 24 | 3.0 | 6.0 | 0.00 | 0.68 | 0.68 | 92 | 1008.4 |
| 20260506164210 | 47 | 45 | 4.0 | 8.0 | 0.00 | 0.75 | 0.75 | 91 | 8.2 |
| 20260506164204 | 48 | 24 | 2.0 | 6.0 | 0.00 | 0.68 | 0.68 | 92 | 1008.4 |
| 20260506164103 | 48 | 348 | 2.0 | 6.0 | 0.00 | 0.68 | 0.68 | 92 | 1008.4 |
| 20260506164003 | 48 | 33 | 4.0 | 6.0 | 0.00 | 0.68 | 0.68 | 92 | 1008.4 |
| 20260506163903 | 48 | 9 | 3.0 | 8.0 | 0.00 | 0.68 | 0.68 | 92 | 1008.4 |
| 20260506163502 | 48 | 355 | 4.0 | 8.0 | 0.00 | 0.68 | 0.68 | 92 | 1008.4 |
| 20260506163403 | 48 | 355 | 4.0 | 8.0 | 0.00 | 0.68 | 0.68 | 92 | 1008.4 |
| 20260506163210 | 48 | 22 | 4.0 | 6.0 | 0.00 | 0.75 | 0.75 | 91 | 8.1 |
| 20260506163202 | 48 | 15 | 0.0 | 4.0 | 0.00 | 0.68 | 0.68 | 92 | 1008.4 |
| 20260506162902 | 48 | 13 | 1.0 | 5.0 | 0.00 | 0.68 | 0.68 | 92 | 1008.3 |
| 20260506162803 | 48 | 5 | 2.0 | 5.0 | 0.00 | 0.68 | 0.68 | 92 | 1008.4 |
| 20260506162603 | 48 | 5 | 1.0 | 5.0 | 0.00 | 0.68 | 0.68 | 92 | 1008.3 |
| 20260506162402 | 48 | 40 | 3.0 | 4.0 | 0.00 | 0.68 | 0.68 | 92 | 1008.3 |
| 20260506162211 | 48 | 5 | 2.0 | 4.0 | 0.00 | 0.68 | 0.68 | 92 | 1008.3 |
| 20260506162103 | 48 | 12 | 2.0 | 5.0 | 0.00 | 0.68 | 0.68 | 92 | 1008.2 |
| 20260506161803 | 48 | 19 | 0.0 | 5.0 | 0.00 | 0.68 | 0.68 | 92 | 1008.3 |
| 20260506161702 | 48 | 27 | 3.0 | 6.0 | 0.00 | 0.68 | 0.68 | 92 | 1008.3 |
| 20260506161603 | 48 | 27 | 2.0 | 6.0 | 0.00 | 0.68 | 0.68 | 92 | 1008.3 |
| 20260506161402 | 48 | 10 | 4.0 | 6.0 | 0.00 | 0.68 | 0.68 | 92 | 1008.3 |
| 20260506161303 | 48 | 5 | 4.0 | 6.0 | 0.00 | 0.68 | 0.68 | 92 | 1008.3 |
| 20260506161210 | 47 | 5 | 3.0 | 8.0 | 0.00 | 0.75 | 0.75 | 90 | 8.1 |
| 20260506161103 | 48 | 19 | 3.0 | 9.0 | 0.00 | 0.68 | 0.68 | 92 | 1008.3 |
| 20260506160904 | 48 | 22 | 2.0 | 9.0 | 0.00 | 0.68 | 0.68 | 92 | 1008.2 |
| 20260506160702 | 48 | 19 | 3.0 | 9.0 | 0.00 | 0.68 | 0.68 | 92 | 1008.2 |
| 20260506160504 | 48 | 5 | 0.0 | 8.0 | 0.00 | 0.68 | 0.68 | 92 | 1008.2 |
| 20260506160403 | 48 | 360 | 3.0 | 8.0 | 0.00 | 0.68 | 0.68 | 92 | 1008.2 |
| 20260506155903 | 48 | 24 | 5.0 | 6.0 | 0.00 | 0.68 | 0.68 | 92 | 1008.2 |
| 20260506155703 | 48 | 355 | 3.0 | 6.0 | 0.00 | 0.68 | 0.68 | 92 | 1008.1 |
| 20260506155505 | 48 | 355 | 5.0 | 6.0 | 0.00 | 0.68 | 0.68 | 92 | 1008.0 |
| 20260506155305 | 48 | 336 | 1.0 | 8.0 | 0.00 | 0.68 | 0.68 | 92 | 1008.1 |
| 20260506155202 | 48 | 349 | 3.0 | 8.0 | 0.00 | 0.68 | 0.68 | 92 | 1008.0 |
| 20260506154903 | 48 | 355 | 5.0 | 8.0 | 0.00 | 0.68 | 0.68 | 92 | 1008.1 |
| 20260506154703 | 48 | 32 | 3.0 | 8.0 | 0.00 | 0.68 | 0.68 | 92 | 1008.0 |
| 20260506154504 | 48 | 20 | 5.0 | 8.0 | 0.00 | 0.68 | 0.68 | 92 | 1008.0 |
| 20260506154302 | 48 | 355 | 2.0 | 8.0 | 0.00 | 0.68 | 0.68 | 92 | 1008.0 |
| 20260506154210 | 48 | 355 | 5.0 | 11.0 | 0.00 | 0.68 | 0.68 | 92 | 1008.0 |
| 20260506154103 | 48 | 360 | 2.0 | 7.0 | 0.00 | 0.68 | 0.68 | 92 | 1008.0 |
| 20260506153902 | 48 | 331 | 4.0 | 8.0 | 0.00 | 0.68 | 0.68 | 92 | 1008.0 |
| 20260506153703 | 48 | 350 | 5.0 | 8.0 | 0.00 | 0.68 | 0.68 | 92 | 1008.0 |
| 20260506153503 | 48 | 360 | 2.0 | 8.0 | 0.00 | 0.68 | 0.68 | 92 | 1008.0 |
| 20260506153303 | 48 | 44 | 6.0 | 6.0 | 0.00 | 0.68 | 0.68 | 92 | 1008.1 |
| 20260506153103 | 48 | 339 | 5.0 | 6.0 | 0.00 | 0.68 | 0.68 | 92 | 1008.0 |
| 20260506153003 | 48 | 340 | 4.0 | 6.0 | 0.00 | 0.68 | 0.68 | 92 | 1008.0 |
| 20260506152703 | 48 | 340 | 4.0 | 6.0 | 0.00 | 0.68 | 0.68 | 91 | 1008.1 |
| 20260506152504 | 48 | 348 | 0.0 | 5.0 | 0.00 | 0.68 | 0.68 | 91 | 1008.1 |
| 20260506152202 | 48 | 355 | 4.0 | 5.0 | 0.00 | 0.68 | 0.68 | 91 | 1008.1 |
| 20260506151903 | 48 | 14 | 4.0 | 8.0 | 0.00 | 0.68 | 0.68 | 92 | 1008.1 |
| 20260506151702 | 48 | 344 | 4.0 | 8.0 | 0.00 | 0.68 | 0.68 | 92 | 1008.1 |
| 20260506151603 | 48 | 340 | 0.0 | 9.0 | 0.00 | 0.68 | 0.68 | 92 | 1008.1 |
| 20260506151403 | 48 | 5 | 5.0 | 9.0 | 0.00 | 0.68 | 0.68 | 92 | 1008.1 |
| 20260506151202 | 48 | 5 | 6.0 | 9.0 | 0.00 | 0.68 | 0.68 | 92 | 1008.1 |
| 20260506151103 | 48 | 351 | 6.0 | 9.0 | 0.00 | 0.68 | 0.68 | 92 | 1008.0 |
| 20260506151005 | 48 | 350 | 4.0 | 6.0 | 0.00 | 0.68 | 0.68 | 92 | 1008.0 |
| 20260506150903 | 48 | 320 | 3.0 | 5.0 | 0.00 | 0.68 | 0.68 | 91 | 1008.1 |
| 20260506150605 | 48 | 342 | 3.0 | 9.0 | 0.00 | 0.68 | 0.68 | 91 | 1008.0 |
| 20260506150403 | 48 | 28 | 4.0 | 9.0 | 0.00 | 0.68 | 0.68 | 92 | 1008.0 |
| 20260506150213 | 48 | 340 | 3.0 | 9.0 | 0.00 | 0.68 | 0.68 | 92 | 1008.0 |
| 20260506150210 | 48 | 340 | 3.0 | 9.0 | 0.00 | 0.75 | 0.75 | 90 | 7.8 |
| 20260506150203 | 48 | 342 | 5.0 | 9.0 | 0.00 | 0.68 | 0.68 | 92 | 1008.0 |
| 20260506150005 | 48 | 319 | 3.0 | 6.0 | 0.00 | 0.68 | 0.68 | 92 | 1008.0 |
| 20260506145802 | 48 | 340 | 3.0 | 10.0 | 0.00 | 0.68 | 0.68 | 92 | 1007.9 |
| 20260506145605 | 48 | 302 | 8.0 | 10.0 | 0.00 | 0.68 | 0.68 | 91 | 1007.9 |
| 20260506145402 | 48 | 355 | 4.0 | 10.0 | 0.00 | 0.68 | 0.68 | 92 | 1007.9 |
| 20260506145305 | 48 | 305 | 4.0 | 6.0 | 0.00 | 0.68 | 0.68 | 92 | 1007.9 |
| 20260506145213 | 48 | 336 | 7.0 | 10.0 | 0.00 | 0.68 | 0.68 | 92 | 1007.9 |
| 20260506145210 | 48 | 305 | 3.0 | 6.0 | 0.00 | 0.68 | 0.68 | 92 | 1007.9 |
| 20260506145004 | 48 | 333 | 2.0 | 6.0 | 0.00 | 0.68 | 0.68 | 92 | 1007.8 |
| 20260506144803 | 48 | 360 | 3.0 | 9.0 | 0.00 | 0.68 | 0.68 | 92 | 1007.8 |
| 20260506144603 | 48 | 332 | 4.0 | 9.0 | 0.00 | 0.68 | 0.68 | 92 | 1007.9 |
| 20260506144505 | 48 | 343 | 4.0 | 9.0 | 0.00 | 0.68 | 0.68 | 92 | 1007.8 |
| 20260506144212 | 48 | 15 | 4.0 | 9.0 | 0.00 | 0.68 | 0.68 | 92 | 1007.8 |
| 20260506144210 | 48 | 342 | 5.0 | 9.0 | 0.00 | 0.68 | 0.68 | 92 | 1007.8 |
| 20260506144202 | 48 | 342 | 4.0 | 9.0 | 0.00 | 0.68 | 0.68 | 92 | 1007.8 |
| 20260506144103 | 48 | 355 | 3.0 | 9.0 | 0.00 | 0.68 | 0.68 | 91 | 1007.8 |
| 20260506143802 | 48 | 355 | 4.0 | 9.0 | 0.00 | 0.68 | 0.68 | 91 | 1007.8 |
| 20260506143702 | 48 | 346 | 5.0 | 9.0 | 0.00 | 0.68 | 0.68 | 91 | 1007.8 |
| 20260506143604 | 48 | 16 | 4.0 | 9.0 | 0.00 | 0.68 | 0.68 | 91 | 1007.8 |
| 20260506143402 | 48 | 19 | 4.0 | 7.0 | 0.00 | 0.68 | 0.68 | 91 | 1007.8 |
| 20260506143302 | 48 | 355 | 2.0 | 7.0 | 0.00 | 0.68 | 0.68 | 91 | 1007.8 |
| 20260506143213 | 48 | 41 | 4.0 | 7.0 | 0.00 | 0.68 | 0.68 | 91 | 1007.8 |
| 20260506143210 | 48 | 355 | 4.0 | 7.0 | 0.00 | 0.68 | 0.68 | 91 | 1007.8 |
| 20260506143203 | 48 | 33 | 3.0 | 8.0 | 0.00 | 0.68 | 0.68 | 91 | 1007.8 |
| 20260506142902 | 49 | 331 | 5.0 | 8.0 | 0.00 | 0.68 | 0.68 | 91 | 1007.7 |
| 20260506142802 | 49 | 355 | 5.0 | 8.0 | 0.00 | 0.68 | 0.68 | 91 | 1007.8 |
| 20260506142403 | 49 | 355 | 4.0 | 7.0 | 0.00 | 0.68 | 0.68 | 92 | 1007.7 |
| 20260506142305 | 49 | 355 | 5.0 | 9.0 | 0.00 | 0.68 | 0.68 | 92 | 1007.7 |
| 20260506142210 | 49 | 355 | 3.0 | 9.0 | 0.00 | 0.75 | 0.75 | 90 | 7.5 |
| 20260506142203 | 49 | 14 | 2.0 | 10.0 | 0.00 | 0.68 | 0.68 | 92 | 1007.7 |
| 20260506142004 | 49 | 344 | 6.0 | 10.0 | 0.00 | 0.68 | 0.68 | 92 | 1007.7 |
| 20260506141903 | 49 | 336 | 8.0 | 10.0 | 0.00 | 0.68 | 0.68 | 92 | 1007.8 |
| 20260506141703 | 49 | 326 | 4.0 | 10.0 | 0.00 | 0.68 | 0.68 | 93 | 1007.7 |
| 20260506141504 | 49 | 5 | 6.0 | 8.0 | 0.00 | 0.68 | 0.68 | 93 | 1007.8 |
| 20260506141302 | 48 | 360 | 3.0 | 8.0 | 0.00 | 0.68 | 0.68 | 92 | 1007.8 |
| 20260506141210 | 49 | 339 | 5.0 | 8.0 | 0.00 | 0.68 | 0.68 | 92 | 1007.8 |
| 20260506141203 | 48 | 15 | 4.0 | 8.0 | 0.00 | 0.68 | 0.68 | 92 | 1007.8 |
| 20260506141004 | 48 | 341 | 3.0 | 8.0 | 0.00 | 0.68 | 0.68 | 92 | 1007.8 |
| 20260506140802 | 48 | 5 | 0.0 | 8.0 | 0.00 | 0.68 | 0.68 | 92 | 1007.7 |
| 20260506140704 | 48 | 360 | 2.0 | 8.0 | 0.00 | 0.68 | 0.68 | 92 | 1007.8 |
| 20260506140504 | 48 | 360 | 3.0 | 8.0 | 0.00 | 0.68 | 0.68 | 92 | 1007.8 |
| 20260506140402 | 48 | 355 | 3.0 | 8.0 | 0.00 | 0.68 | 0.68 | 92 | 1007.8 |
| 20260506140210 | 48 | 23 | 4.0 | 6.0 | 0.01 | 0.68 | 0.68 | 92 | 1007.8 |
| 20260506140203 | 48 | 23 | 0.0 | 6.0 | 0.01 | 0.68 | 0.68 | 92 | 1007.8 |
| 20260506140005 | 48 | 15 | 3.0 | 6.0 | 0.01 | 0.68 | 0.68 | 92 | 1007.8 |
| 20260506135903 | 48 | 15 | 4.0 | 6.0 | 0.01 | 0.68 | 0.68 | 92 | 1007.8 |
| 20260506135504 | 48 | 337 | 2.0 | 6.0 | 0.01 | 0.68 | 0.68 | 92 | 1007.8 |
| 20260506135305 | 48 | 348 | 3.0 | 6.0 | 0.01 | 0.68 | 0.68 | 92 | 1007.9 |
| 20260506135210 | 48 | 349 | 3.0 | 5.0 | 0.00 | 0.75 | 0.75 | 90 | 7.5 |
| 20260506135203 | 48 | 344 | 3.0 | 6.0 | 0.01 | 0.68 | 0.68 | 92 | 1007.9 |
| 20260506135004 | 48 | 360 | 0.0 | 9.0 | 0.01 | 0.68 | 0.68 | 92 | 1007.8 |
| 20260506134903 | 48 | 340 | 8.0 | 9.0 | 0.01 | 0.68 | 0.68 | 92 | 1007.9 |
| 20260506134703 | 48 | 340 | 3.0 | 9.0 | 0.01 | 0.68 | 0.68 | 92 | 1007.9 |
| 20260506134603 | 48 | 355 | 3.0 | 7.0 | 0.01 | 0.68 | 0.68 | 92 | 1007.9 |
| 20260506134504 | 48 | 351 | 4.0 | 7.0 | 0.01 | 0.68 | 0.68 | 92 | 1007.8 |
| 20260506134302 | 48 | 340 | 3.0 | 6.0 | 0.01 | 0.68 | 0.68 | 92 | 1007.9 |
| 20260506134210 | 48 | 355 | 4.0 | 9.0 | 0.01 | 0.68 | 0.68 | 92 | 1007.8 |
| 20260506134203 | 48 | 355 | 4.0 | 7.0 | 0.01 | 0.68 | 0.68 | 92 | 1007.8 |
| 20260506133903 | 49 | 348 | 6.0 | 7.0 | 0.01 | 0.68 | 0.68 | 92 | 1007.9 |
| 20260506133802 | 49 | 14 | 5.0 | 7.0 | 0.01 | 0.68 | 0.68 | 92 | 1007.8 |
| 20260506133703 | 49 | 329 | 3.0 | 6.0 | 0.01 | 0.68 | 0.68 | 93 | 1007.8 |
| 20260506133603 | 49 | 345 | 3.0 | 5.0 | 0.01 | 0.68 | 0.68 | 92 | 1007.8 |
| 20260506133504 | 49 | 344 | 1.0 | 6.0 | 0.01 | 0.68 | 0.68 | 92 | 1007.8 |
| 20260506133304 | 49 | 21 | 3.0 | 6.0 | 0.01 | 0.68 | 0.68 | 93 | 1007.8 |
| 20260506133210 | 49 | 21 | 3.0 | 6.0 | 0.01 | 0.68 | 0.68 | 93 | 1007.8 |
| 20260506133102 | 49 | 335 | 3.0 | 8.0 | 0.02 | 0.68 | 0.68 | 93 | 1007.8 |
| 20260506132703 | 49 | 355 | 2.0 | 9.0 | 0.02 | 0.68 | 0.68 | 92 | 1007.8 |
| 20260506132503 | 49 | 330 | 4.0 | 9.0 | 0.02 | 0.68 | 0.68 | 92 | 1007.7 |
| 20260506132203 | 49 | 360 | 4.0 | 10.0 | 0.02 | 0.68 | 0.68 | 92 | 1007.7 |
| 20260506132006 | 49 | 48 | 0.0 | 10.0 | 0.02 | 0.68 | 0.68 | 92 | 1007.7 |
| 20260506131803 | 49 | 337 | 5.0 | 10.0 | 0.02 | 0.68 | 0.68 | 92 | 1007.7 |
| 20260506131703 | 49 | 340 | 7.0 | 9.0 | 0.02 | 0.68 | 0.68 | 93 | 1007.7 |
| 20260506131503 | 49 | 10 | 4.0 | 9.0 | 0.02 | 0.68 | 0.68 | 93 | 1007.7 |
| 20260506131402 | 49 | 324 | 5.0 | 9.0 | 0.02 | 0.68 | 0.68 | 93 | 1007.7 |
| 20260506131210 | 49 | 360 | 5.0 | 9.0 | 0.02 | 0.68 | 0.68 | 93 | 1007.7 |
| 20260506131202 | 49 | 348 | 2.0 | 6.0 | 0.02 | 0.68 | 0.68 | 93 | 1007.7 |
| 20260506131004 | 49 | 340 | 3.0 | 10.0 | 0.02 | 0.68 | 0.68 | 93 | 1007.7 |
| 20260506130802 | 49 | 41 | 6.0 | 10.0 | 0.02 | 0.68 | 0.68 | 93 | 1007.6 |
| 20260506130702 | 49 | 321 | 6.0 | 10.0 | 0.02 | 0.68 | 0.68 | 93 | 1007.6 |
| 20260506130604 | 49 | 10 | 3.0 | 10.0 | 0.02 | 0.68 | 0.68 | 93 | 1007.6 |
| 20260506130403 | 49 | 360 | 3.0 | 5.0 | 0.02 | 0.68 | 0.68 | 93 | 1007.6 |
| 20260506130302 | 49 | 323 | 3.0 | 5.0 | 0.02 | 0.67 | 0.67 | 93 | 1007.6 |
| 20260506130210 | 48 | 335 | 3.0 | 5.0 | 0.02 | 0.67 | 0.67 | 93 | 1007.6 |
| 20260506130203 | 48 | 335 | 3.0 | 5.0 | 0.02 | 0.67 | 0.67 | 93 | 1007.6 |
| 20260506125603 | 48 | 17 | 4.0 | 9.0 | 0.02 | 0.67 | 0.67 | 93 | 1007.6 |
| 20260506125402 | 48 | 32 | 3.0 | 8.0 | 0.02 | 0.67 | 0.67 | 93 | 1007.5 |
| 20260506125210 | 48 | 36 | 3.0 | 8.0 | 0.02 | 0.75 | 0.75 | 91 | 7.3 |
| 20260506125202 | 48 | 5 | 5.0 | 8.0 | 0.02 | 0.67 | 0.67 | 93 | 1007.5 |
| 20260506125005 | 48 | 15 | 2.0 | 7.0 | 0.02 | 0.67 | 0.67 | 93 | 1007.5 |
| 20260506124803 | 48 | 337 | 3.0 | 6.0 | 0.02 | 0.67 | 0.67 | 93 | 1007.5 |
| 20260506124602 | 48 | 25 | 4.0 | 6.0 | 0.02 | 0.67 | 0.67 | 93 | 1007.5 |
| 20260506124303 | 48 | 5 | 4.0 | 8.0 | 0.02 | 0.67 | 0.67 | 93 | 1007.4 |
| 20260506124210 | 48 | 355 | 3.0 | 8.0 | 0.02 | 0.67 | 0.67 | 93 | 1007.4 |
| 20260506124203 | 48 | 355 | 5.0 | 8.0 | 0.02 | 0.67 | 0.67 | 93 | 1007.4 |
| 20260506124003 | 48 | 10 | 4.0 | 8.0 | 0.02 | 0.67 | 0.67 | 93 | 1007.4 |
| 20260506123903 | 48 | 339 | 4.0 | 8.0 | 0.02 | 0.67 | 0.67 | 93 | 1007.4 |
| 20260506123703 | 48 | 17 | 4.0 | 7.0 | 0.02 | 0.67 | 0.67 | 93 | 1007.3 |
| 20260506123504 | 48 | 26 | 0.0 | 8.0 | 0.02 | 0.67 | 0.67 | 93 | 1007.4 |
| 20260506123210 | 48 | 20 | 2.0 | 9.0 | 0.02 | 0.67 | 0.67 | 93 | 1007.3 |
| 20260506123202 | 48 | 46 | 4.0 | 8.0 | 0.02 | 0.66 | 0.66 | 93 | 1007.3 |
| 20260506123103 | 48 | 9 | 4.0 | 8.0 | 0.02 | 0.66 | 0.66 | 93 | 1007.4 |
| 20260506122903 | 48 | 333 | 5.0 | 8.0 | 0.02 | 0.66 | 0.66 | 93 | 1007.3 |
| 20260506122703 | 48 | 346 | 4.0 | 8.0 | 0.02 | 0.66 | 0.66 | 93 | 1007.3 |
| 20260506122505 | 48 | 20 | 5.0 | 9.0 | 0.02 | 0.66 | 0.66 | 93 | 1007.3 |
| 20260506122403 | 48 | 345 | 5.0 | 9.0 | 0.02 | 0.66 | 0.66 | 93 | 1007.3 |
| 20260506122210 | 49 | 16 | 3.0 | 9.0 | 0.02 | 0.66 | 0.66 | 93 | 1007.3 |
| 20260506122203 | 49 | 30 | 3.0 | 9.0 | 0.02 | 0.66 | 0.66 | 93 | 1007.3 |
| 20260506122104 | 49 | 348 | 0.0 | 9.0 | 0.02 | 0.66 | 0.66 | 93 | 1007.3 |
| 20260506121702 | 49 | 343 | 5.0 | 9.0 | 0.02 | 0.66 | 0.66 | 93 | 1007.3 |
| 20260506121403 | 49 | 333 | 1.0 | 8.0 | 0.03 | 0.66 | 0.66 | 93 | 1007.2 |
| 20260506121210 | 49 | 355 | 3.0 | 8.0 | 0.03 | 0.66 | 0.66 | 93 | 1007.2 |
| 20260506121203 | 49 | 355 | 3.0 | 8.0 | 0.03 | 0.66 | 0.66 | 93 | 1007.2 |
| 20260506121006 | 48 | 5 | 3.0 | 8.0 | 0.03 | 0.66 | 0.66 | 93 | 1007.2 |
| 20260506120803 | 48 | 33 | 2.0 | 6.0 | 0.03 | 0.66 | 0.66 | 93 | 1007.2 |
| 20260506120703 | 48 | 355 | 4.0 | 6.0 | 0.03 | 0.66 | 0.66 | 93 | 1007.2 |
| 20260506120504 | 48 | 28 | 4.0 | 9.0 | 0.03 | 0.66 | 0.66 | 93 | 1007.1 |
| 20260506120302 | 48 | 12 | 3.0 | 9.0 | 0.02 | 0.65 | 0.65 | 93 | 1007.2 |
| 20260506115904 | 48 | 17 | 3.0 | 10.0 | 0.02 | 0.65 | 0.65 | 93 | 1007.1 |
| 20260506115702 | 49 | 342 | 5.0 | 10.0 | 0.02 | 0.65 | 0.65 | 93 | 1007.1 |
| 20260506115504 | 49 | 9 | 0.0 | 10.0 | 0.02 | 0.65 | 0.65 | 93 | 1007.0 |
| 20260506115210 | 49 | 30 | 6.0 | 10.0 | 0.02 | 0.74 | 0.74 | 91 | 6.8 |
| 20260506115203 | 49 | 329 | 5.0 | 8.0 | 0.02 | 0.65 | 0.65 | 93 | 1007.0 |
| 20260506115103 | 49 | 360 | 3.0 | 7.0 | 0.02 | 0.65 | 0.65 | 93 | 1007.1 |
| 20260506115003 | 49 | 343 | 4.0 | 7.0 | 0.02 | 0.65 | 0.65 | 93 | 1007.0 |
| 20260506114603 | 50 | 350 | 0.0 | 6.0 | 0.02 | 0.65 | 0.65 | 93 | 1006.9 |
| 20260506114505 | 49 | 360 | 3.0 | 6.0 | 0.02 | 0.65 | 0.65 | 93 | 1007.0 |
| 20260506114303 | 49 | 355 | 3.0 | 8.0 | 0.02 | 0.65 | 0.65 | 93 | 1006.9 |
| 20260506114203 | 49 | 28 | 3.0 | 8.0 | 0.02 | 0.65 | 0.65 | 93 | 1007.0 |
| 20260506114103 | 49 | 5 | 8.0 | 8.0 | 0.02 | 0.65 | 0.65 | 93 | 1006.9 |
| 20260506113903 | 49 | 32 | 0.0 | 8.0 | 0.02 | 0.65 | 0.65 | 93 | 1006.9 |
| 20260506113802 | 49 | 5 | 3.0 | 7.0 | 0.02 | 0.65 | 0.65 | 93 | 1006.9 |
| 20260506113703 | 49 | 5 | 5.0 | 7.0 | 0.02 | 0.65 | 0.65 | 93 | 1006.9 |
| 20260506113503 | 49 | 32 | 2.0 | 7.0 | 0.02 | 0.65 | 0.65 | 93 | 1006.9 |
| 20260506113403 | 50 | 22 | 4.0 | 6.0 | 0.02 | 0.65 | 0.65 | 93 | 1006.9 |
| 20260506113302 | 50 | 23 | 0.0 | 8.0 | 0.02 | 0.64 | 0.64 | 93 | 1007.0 |
| 20260506113210 | 50 | 40 | 3.0 | 9.0 | 0.02 | 0.64 | 0.64 | 93 | 1006.9 |
| 20260506112803 | 50 | 19 | 5.0 | 8.0 | 0.02 | 0.64 | 0.64 | 93 | 1006.9 |
| 20260506112703 | 50 | 36 | 3.0 | 6.0 | 0.02 | 0.64 | 0.64 | 93 | 1006.8 |
| 20260506112504 | 50 | 349 | 0.0 | 5.0 | 0.02 | 0.64 | 0.64 | 93 | 1006.8 |
| 20260506112402 | 50 | 360 | 3.0 | 5.0 | 0.01 | 0.64 | 0.64 | 93 | 1006.8 |
| 20260506112210 | 50 | 5 | 3.0 | 5.0 | 0.01 | 0.64 | 0.64 | 93 | 1006.8 |
| 20260506112104 | 50 | 11 | 3.0 | 6.0 | 0.01 | 0.64 | 0.64 | 93 | 1006.8 |
| 20260506112005 | 50 | 31 | 3.0 | 7.0 | 0.01 | 0.64 | 0.64 | 93 | 1006.8 |
| 20260506111803 | 50 | 355 | 3.0 | 7.0 | 0.01 | 0.64 | 0.64 | 93 | 1006.8 |
| 20260506111602 | 50 | 333 | 3.0 | 9.0 | 0.01 | 0.64 | 0.64 | 93 | 1006.8 |
| 20260506111402 | 50 | 360 | 3.0 | 9.0 | 0.00 | 0.63 | 0.63 | 93 | 1006.7 |
| 20260506111210 | 50 | 317 | 4.0 | 9.0 | 0.00 | 0.63 | 0.63 | 93 | 1006.7 |
| 20260506111202 | 50 | 317 | 4.0 | 9.0 | 0.00 | 0.63 | 0.63 | 93 | 1006.7 |
| 20260506111004 | 50 | 344 | 0.0 | 9.0 | 0.00 | 0.63 | 0.63 | 93 | 1006.7 |
| 20260506110902 | 50 | 360 | 4.0 | 9.0 | 0.00 | 0.63 | 0.63 | 93 | 1006.7 |
| 20260506110802 | 50 | 346 | 4.0 | 10.0 | 0.00 | 0.63 | 0.63 | 93 | 1006.7 |
| 20260506110603 | 50 | 329 | 4.0 | 10.0 | 0.00 | 0.63 | 0.63 | 93 | 1006.7 |
| 20260506110504 | 50 | 342 | 5.0 | 10.0 | 0.00 | 0.63 | 0.63 | 93 | 1006.7 |
| 20260506110302 | 50 | 333 | 3.0 | 10.0 | 0.00 | 0.63 | 0.63 | 94 | 1006.7 |
| 20260506105903 | 49 | 333 | 3.0 | 9.0 | 0.00 | 0.63 | 0.63 | 93 | 1006.7 |
| 20260506105602 | 50 | 14 | 3.0 | 6.0 | 0.00 | 0.63 | 0.63 | 93 | 1006.7 |
| 20260506105504 | 49 | 340 | 0.0 | 6.0 | 0.01 | 0.63 | 0.63 | 93 | 1006.8 |
| 20260506105305 | 49 | 360 | 2.0 | 6.0 | 0.01 | 0.63 | 0.63 | 93 | 1006.8 |
| 20260506105210 | 49 | 330 | 3.0 | 8.0 | 0.01 | 0.71 | 0.71 | 92 | 6.5 |
| 20260506105005 | 50 | 33 | 4.0 | 6.0 | 0.01 | 0.63 | 0.63 | 93 | 1006.8 |
| 20260506104802 | 50 | 350 | 4.0 | 6.0 | 0.01 | 0.63 | 0.63 | 93 | 1006.7 |
| 20260506104602 | 50 | 355 | 4.0 | 8.0 | 0.01 | 0.63 | 0.63 | 93 | 1006.7 |
| 20260506104505 | 50 | 355 | 3.0 | 8.0 | 0.01 | 0.63 | 0.63 | 93 | 1006.7 |
| 20260506104402 | 50 | 355 | 3.0 | 8.0 | 0.01 | 0.63 | 0.63 | 93 | 1006.7 |
| 20260506104210 | 50 | 17 | 3.0 | 10.0 | 0.01 | 0.63 | 0.63 | 93 | 1006.7 |
| 20260506104103 | 50 | 343 | 4.0 | 8.0 | 0.01 | 0.63 | 0.63 | 93 | 1006.7 |
| 20260506103902 | 50 | 337 | 7.0 | 8.0 | 0.01 | 0.63 | 0.63 | 93 | 1006.7 |
| 20260506103802 | 50 | 346 | 6.0 | 8.0 | 0.01 | 0.63 | 0.63 | 93 | 1006.7 |
| 20260506103703 | 50 | 355 | 4.0 | 8.0 | 0.01 | 0.63 | 0.63 | 93 | 1006.7 |
| 20260506103404 | 50 | 341 | 2.0 | 5.0 | 0.01 | 0.63 | 0.63 | 93 | 1006.7 |
| 20260506103211 | 50 | 343 | 5.0 | 13.0 | 0.01 | 0.63 | 0.63 | 93 | 1006.6 |
| 20260506103202 | 50 | 323 | 5.0 | 12.0 | 0.01 | 0.63 | 0.63 | 93 | 1006.6 |
| 20260506103005 | 50 | 336 | 7.0 | 12.0 | 0.01 | 0.63 | 0.63 | 93 | 1006.7 |
| 20260506102903 | 50 | 333 | 11.0 | 12.0 | 0.01 | 0.63 | 0.63 | 93 | 1006.6 |
| 20260506102703 | 50 | 324 | 4.0 | 7.0 | 0.02 | 0.63 | 0.63 | 93 | 1006.6 |
| 20260506102505 | 50 | 350 | 2.0 | 7.0 | 0.02 | 0.63 | 0.63 | 93 | 1006.6 |
| 20260506102210 | 51 | 317 | 3.0 | 8.0 | 0.02 | 0.63 | 0.63 | 94 | 1006.6 |
| 20260506102203 | 51 | 338 | 3.0 | 8.0 | 0.02 | 0.63 | 0.63 | 94 | 1006.6 |
| 20260506102104 | 50 | 349 | 4.0 | 8.0 | 0.02 | 0.63 | 0.63 | 93 | 1006.5 |
| 20260506101803 | 50 | 26 | 4.0 | 9.0 | 0.02 | 0.63 | 0.63 | 94 | 1006.6 |
| 20260506101702 | 50 | 38 | 3.0 | 9.0 | 0.02 | 0.63 | 0.63 | 94 | 1006.5 |
| 20260506101210 | 50 | 24 | 3.0 | 10.0 | 0.02 | 0.63 | 0.63 | 94 | 1006.5 |
| 20260506101202 | 50 | 24 | 2.0 | 9.0 | 0.02 | 0.63 | 0.63 | 94 | 1006.5 |
| 20260506101103 | 50 | 42 | 1.0 | 10.0 | 0.02 | 0.63 | 0.63 | 94 | 1006.5 |
| 20260506101006 | 50 | 42 | 8.0 | 10.0 | 0.02 | 0.63 | 0.63 | 94 | 1006.5 |
| 20260506100903 | 50 | 26 | 0.0 | 10.0 | 0.03 | 0.63 | 0.63 | 94 | 1006.5 |
| 20260506100802 | 50 | 45 | 4.0 | 10.0 | 0.03 | 0.63 | 0.63 | 94 | 1006.4 |
| 20260506100603 | 50 | 345 | 3.0 | 8.0 | 0.03 | 0.63 | 0.63 | 94 | 1006.5 |
| 20260506100503 | 50 | 351 | 3.0 | 8.0 | 0.03 | 0.63 | 0.63 | 94 | 1006.5 |
| 20260506100302 | 50 | 5 | 5.0 | 8.0 | 0.03 | 0.63 | 0.63 | 94 | 1006.4 |
| 20260506095903 | 50 | 350 | 2.0 | 5.0 | 0.04 | 0.63 | 0.63 | 94 | 1006.4 |
| 20260506095802 | 50 | 24 | 2.0 | 5.0 | 0.04 | 0.63 | 0.63 | 94 | 1006.4 |
| 20260506095703 | 50 | 26 | 1.0 | 5.0 | 0.04 | 0.63 | 0.63 | 94 | 1006.4 |
| 20260506095604 | 50 | 27 | 3.0 | 6.0 | 0.04 | 0.63 | 0.63 | 94 | 1006.4 |
| 20260506095403 | 50 | 13 | 2.0 | 6.0 | 0.03 | 0.62 | 0.62 | 94 | 1006.4 |
| 20260506095305 | 50 | 348 | 3.0 | 6.0 | 0.03 | 0.62 | 0.62 | 94 | 1006.4 |
| 20260506095210 | 50 | 345 | 3.0 | 8.0 | 0.03 | 0.62 | 0.62 | 94 | 1006.4 |
| 20260506095203 | 50 | 345 | 3.0 | 8.0 | 0.03 | 0.62 | 0.62 | 94 | 1006.4 |
| 20260506095005 | 50 | 315 | 6.0 | 8.0 | 0.03 | 0.62 | 0.62 | 94 | 1006.4 |
| 20260506094902 | 50 | 337 | 5.0 | 8.0 | 0.03 | 0.62 | 0.62 | 94 | 1006.4 |
| 20260506094702 | 50 | 333 | 3.0 | 5.0 | 0.03 | 0.62 | 0.62 | 94 | 1006.4 |
| 20260506094603 | 50 | 355 | 3.0 | 5.0 | 0.04 | 0.62 | 0.62 | 94 | 1006.4 |
| 20260506094504 | 50 | 348 | 4.0 | 5.0 | 0.04 | 0.62 | 0.62 | 94 | 1006.4 |
| 20260506094302 | 50 | 360 | 2.0 | 5.0 | 0.04 | 0.62 | 0.62 | 94 | 1006.4 |
| 20260506094104 | 50 | 5 | 3.0 | 4.0 | 0.04 | 0.62 | 0.62 | 94 | 1006.4 |
| 20260506094004 | 50 | 355 | 3.0 | 4.0 | 0.04 | 0.62 | 0.62 | 94 | 1006.4 |
| 20260506093903 | 50 | 11 | 4.0 | 4.0 | 0.04 | 0.62 | 0.62 | 94 | 1006.4 |
| 20260506093802 | 50 | 23 | 2.0 | 7.0 | 0.04 | 0.62 | 0.62 | 94 | 1006.4 |
| 20260506093702 | 50 | 11 | 3.0 | 7.0 | 0.04 | 0.62 | 0.62 | 94 | 1006.4 |
| 20260506093503 | 49 | 351 | 5.0 | 7.0 | 0.04 | 0.62 | 0.62 | 94 | 1006.4 |
| 20260506093402 | 50 | 337 | 3.0 | 7.0 | 0.04 | 0.62 | 0.62 | 94 | 1006.4 |
| 20260506093210 | 50 | 321 | 2.0 | 5.0 | 0.04 | 0.62 | 0.62 | 94 | 1006.3 |
| 20260506093103 | 49 | 9 | 2.0 | 6.0 | 0.04 | 0.62 | 0.62 | 94 | 1006.3 |
| 20260506092902 | 49 | 5 | 3.0 | 6.0 | 0.04 | 0.62 | 0.62 | 94 | 1006.3 |
| 20260506092803 | 49 | 5 | 3.0 | 6.0 | 0.03 | 0.61 | 0.61 | 94 | 1006.3 |
| 20260506092703 | 49 | 339 | 6.0 | 6.0 | 0.03 | 0.61 | 0.61 | 94 | 1006.3 |
| 20260506092603 | 49 | 346 | 2.0 | 5.0 | 0.03 | 0.61 | 0.61 | 94 | 1006.3 |
| 20260506092402 | 49 | 12 | 2.0 | 5.0 | 0.03 | 0.61 | 0.61 | 94 | 1006.2 |
| 20260506092210 | 49 | 360 | 2.0 | 5.0 | 0.04 | 0.70 | 0.70 | 93 | 6.0 |
| 20260506092103 | 49 | 336 | 0.0 | 5.0 | 0.03 | 0.61 | 0.61 | 94 | 1006.2 |
| 20260506092004 | 49 | 346 | 3.0 | 5.0 | 0.03 | 0.61 | 0.61 | 94 | 1006.2 |
| 20260506091902 | 49 | 346 | 4.0 | 5.0 | 0.03 | 0.61 | 0.61 | 94 | 1006.2 |
| 20260506091802 | 49 | 344 | 4.0 | 5.0 | 0.02 | 0.61 | 0.61 | 94 | 1006.2 |
| 20260506091602 | 49 | 336 | 0.0 | 8.0 | 0.02 | 0.61 | 0.61 | 94 | 1006.2 |
| 20260506091504 | 49 | 11 | 2.0 | 8.0 | 0.02 | 0.61 | 0.61 | 94 | 1006.2 |
| 20260506091303 | 49 | 11 | 3.0 | 8.0 | 0.02 | 0.61 | 0.61 | 94 | 1006.2 |
| 20260506091213 | 49 | 11 | 4.0 | 8.0 | 0.02 | 0.61 | 0.61 | 94 | 1006.2 |
| 20260506091210 | 49 | 11 | 2.0 | 8.0 | 0.02 | 0.68 | 0.68 | 93 | 5.9 |
| 20260506091203 | 49 | 5 | 3.0 | 8.0 | 0.02 | 0.61 | 0.61 | 94 | 1006.2 |
| 20260506091103 | 49 | 31 | 3.0 | 8.0 | 0.02 | 0.61 | 0.61 | 94 | 1006.3 |
| 20260506090902 | 49 | 10 | 3.0 | 7.0 | 0.02 | 0.60 | 0.60 | 94 | 1006.3 |
| 20260506090703 | 49 | 338 | 4.0 | 7.0 | 0.02 | 0.60 | 0.60 | 94 | 1006.3 |
| 20260506090504 | 49 | 349 | 0.0 | 8.0 | 0.02 | 0.60 | 0.60 | 94 | 1006.2 |
| 20260506090303 | 49 | 360 | 4.0 | 8.0 | 0.02 | 0.60 | 0.60 | 94 | 1006.2 |
| 20260506090213 | 49 | 11 | 4.0 | 9.0 | 0.02 | 0.60 | 0.60 | 94 | 1006.2 |
| 20260506090210 | 49 | 360 | 3.0 | 9.0 | 0.02 | 0.67 | 0.67 | 93 | 5.9 |
| 20260506090203 | 49 | 322 | 4.0 | 8.0 | 0.02 | 0.59 | 0.59 | 94 | 1006.2 |
| 20260506085902 | 49 | 11 | 2.0 | 8.0 | 0.02 | 0.59 | 0.59 | 94 | 1006.2 |
| 20260506085703 | 49 | 19 | 4.0 | 5.0 | 0.02 | 0.59 | 0.59 | 94 | 1006.2 |
| 20260506085504 | 49 | 351 | 2.0 | 5.0 | 0.02 | 0.59 | 0.59 | 94 | 1006.2 |
| 20260506085213 | 49 | 22 | 3.0 | 5.0 | 0.02 | 0.59 | 0.59 | 94 | 1006.1 |
| 20260506085210 | 49 | 320 | 3.0 | 5.0 | 0.02 | 0.67 | 0.67 | 93 | 5.9 |
| 20260506085203 | 49 | 22 | 3.0 | 5.0 | 0.02 | 0.59 | 0.59 | 94 | 1006.1 |
| 20260506085103 | 49 | 44 | 3.0 | 5.0 | 0.02 | 0.59 | 0.59 | 94 | 1006.1 |
| 20260506085004 | 49 | 342 | 3.0 | 5.0 | 0.02 | 0.59 | 0.59 | 94 | 1006.1 |
| 20260506084903 | 49 | 21 | 0.0 | 5.0 | 0.02 | 0.59 | 0.59 | 94 | 1006.0 |
| 20260506084602 | 49 | 315 | 2.0 | 7.0 | 0.01 | 0.58 | 0.58 | 94 | 1006.1 |
| 20260506084504 | 49 | 304 | 2.0 | 7.0 | 0.01 | 0.58 | 0.58 | 94 | 1006.0 |
| 20260506084303 | 49 | 360 | 2.0 | 7.0 | 0.01 | 0.58 | 0.58 | 94 | 1006.0 |
| 20260506084213 | 49 | 350 | 3.0 | 7.0 | 0.01 | 0.58 | 0.58 | 94 | 1006.0 |
| 20260506084210 | 49 | 355 | 2.0 | 7.0 | 0.02 | 0.67 | 0.67 | 93 | 5.8 |
| 20260506084203 | 49 | 350 | 2.0 | 7.0 | 0.01 | 0.58 | 0.58 | 94 | 1006.0 |
| 20260506084004 | 49 | 355 | 4.0 | 9.0 | 0.01 | 0.58 | 0.58 | 94 | 1006.0 |
| 20260506083903 | 49 | 11 | 3.0 | 9.0 | 0.01 | 0.58 | 0.58 | 94 | 1006.0 |
| 20260506083702 | 49 | 10 | 6.0 | 9.0 | 0.01 | 0.58 | 0.58 | 94 | 1005.9 |
| 20260506083504 | 49 | 20 | 0.0 | 7.0 | 0.01 | 0.58 | 0.58 | 94 | 1005.9 |
| 20260506083304 | 49 | 360 | 3.0 | 6.0 | 0.01 | 0.58 | 0.58 | 94 | 1005.9 |
| 20260506083213 | 49 | 9 | 2.0 | 8.0 | 0.01 | 0.58 | 0.58 | 94 | 1005.9 |
| 20260506083210 | 49 | 30 | 2.0 | 6.0 | 0.01 | 0.66 | 0.66 | 93 | 5.6 |
| 20260506083102 | 49 | 9 | 2.0 | 4.0 | 0.01 | 0.58 | 0.58 | 94 | 1005.9 |
| 20260506082903 | 49 | 355 | 4.0 | 5.0 | 0.01 | 0.58 | 0.58 | 94 | 1005.8 |
| 20260506082802 | 49 | 10 | 3.0 | 7.0 | 0.01 | 0.58 | 0.58 | 94 | 1005.8 |
| 20260506082602 | 49 | 5 | 3.0 | 7.0 | 0.01 | 0.58 | 0.58 | 94 | 1005.8 |
| 20260506082402 | 49 | 16 | 3.0 | 7.0 | 0.01 | 0.58 | 0.58 | 94 | 1005.8 |
| 20260506082213 | 49 | 347 | 4.0 | 7.0 | 0.01 | 0.58 | 0.58 | 95 | 1005.7 |
| 20260506082210 | 49 | 347 | 4.0 | 9.0 | 0.01 | 0.58 | 0.58 | 94 | 1005.8 |
| 20260506082203 | 49 | 347 | 5.0 | 9.0 | 0.01 | 0.58 | 0.58 | 94 | 1005.8 |
| 20260506082003 | 49 | 51 | 4.0 | 9.0 | 0.01 | 0.58 | 0.58 | 94 | 1005.8 |
| 20260506081902 | 49 | 57 | 3.0 | 9.0 | 0.01 | 0.58 | 0.58 | 94 | 1005.8 |
| 20260506081703 | 49 | 13 | 2.0 | 7.0 | 0.01 | 0.58 | 0.58 | 94 | 1005.8 |
| 20260506081503 | 49 | 13 | 3.0 | 7.0 | 0.01 | 0.58 | 0.58 | 94 | 1005.8 |
| 20260506081402 | 49 | 15 | 4.0 | 7.0 | 0.01 | 0.58 | 0.58 | 94 | 1005.8 |
| 20260506081303 | 49 | 32 | 3.0 | 6.0 | 0.01 | 0.58 | 0.58 | 95 | 1005.8 |
| 20260506081210 | 49 | 32 | 4.0 | 6.0 | 0.01 | 0.66 | 0.66 | 93 | 5.5 |
| 20260506081105 | 49 | 5 | 0.0 | 6.0 | 0.01 | 0.58 | 0.58 | 94 | 1005.8 |
| 20260506080903 | 49 | 360 | 4.0 | 6.0 | 0.02 | 0.58 | 0.58 | 94 | 1005.7 |
| 20260506080803 | 49 | 30 | 2.0 | 6.0 | 0.02 | 0.58 | 0.58 | 94 | 1005.7 |
| 20260506080704 | 49 | 34 | 2.0 | 11.0 | 0.02 | 0.58 | 0.58 | 94 | 1005.7 |
| 20260506080504 | 49 | 26 | 3.0 | 11.0 | 0.02 | 0.58 | 0.58 | 94 | 1005.7 |
| 20260506080402 | 49 | 12 | 6.0 | 11.0 | 0.02 | 0.58 | 0.58 | 94 | 1005.7 |
| 20260506073302 | 49 | 23 | 5.0 | 11.0 | 0.02 | 0.58 | 0.58 | 95 | 1005.5 |
| 20260506073210 | 49 | 26 | 4.0 | 10.0 | 0.02 | 0.58 | 0.58 | 95 | 1005.4 |
| 20260506073203 | 49 | 29 | 5.0 | 11.0 | 0.02 | 0.58 | 0.58 | 95 | 1005.4 |
| 20260506073005 | 49 | 17 | 5.0 | 9.0 | 0.02 | 0.58 | 0.58 | 95 | 1005.5 |
| 20260506072903 | 49 | 40 | 5.0 | 9.0 | 0.02 | 0.58 | 0.58 | 95 | 1005.5 |
| 20260506072803 | 49 | 12 | 3.0 | 9.0 | 0.02 | 0.58 | 0.58 | 95 | 1005.4 |
| 20260506072603 | 49 | 12 | 2.0 | 7.0 | 0.02 | 0.58 | 0.58 | 95 | 1005.5 |
| 20260506072210 | 49 | 17 | 3.0 | 9.0 | 0.02 | 0.65 | 0.65 | 93 | 5.1 |
| 20260506072204 | 49 | 33 | 3.0 | 9.0 | 0.02 | 0.58 | 0.58 | 95 | 1005.4 |
| 20260506072004 | 49 | 38 | 2.0 | 10.0 | 0.02 | 0.58 | 0.58 | 95 | 1005.3 |
| 20260506071802 | 49 | 15 | 4.0 | 10.0 | 0.02 | 0.58 | 0.58 | 95 | 1005.4 |
| 20260506071702 | 49 | 12 | 7.0 | 10.0 | 0.02 | 0.58 | 0.58 | 95 | 1005.4 |
| 20260506071603 | 49 | 32 | 6.0 | 10.0 | 0.02 | 0.58 | 0.58 | 95 | 1005.3 |
| 20260506071504 | 49 | 350 | 4.0 | 10.0 | 0.02 | 0.58 | 0.58 | 95 | 1005.3 |
| 20260506071303 | 49 | 53 | 0.0 | 8.0 | 0.02 | 0.58 | 0.58 | 95 | 1005.3 |
| 20260506071210 | 49 | 53 | 4.0 | 9.0 | 0.02 | 0.58 | 0.58 | 95 | 1005.3 |
| 20260506071202 | 49 | 9 | 2.0 | 8.0 | 0.02 | 0.58 | 0.58 | 95 | 1005.3 |
| 20260506071006 | 49 | 9 | 5.0 | 8.0 | 0.02 | 0.58 | 0.58 | 95 | 1005.3 |
| 20260506070803 | 49 | 21 | 4.0 | 13.0 | 0.02 | 0.57 | 0.57 | 95 | 1005.4 |
| 20260506070703 | 49 | 32 | 3.0 | 13.0 | 0.02 | 0.57 | 0.57 | 95 | 1005.4 |
| 20260506070604 | 49 | 25 | 9.0 | 13.0 | 0.02 | 0.57 | 0.57 | 95 | 1005.4 |
| 20260506070402 | 49 | 24 | 1.0 | 9.0 | 0.02 | 0.57 | 0.57 | 95 | 1005.3 |
| 20260506070302 | 49 | 28 | 4.0 | 9.0 | 0.02 | 0.57 | 0.57 | 95 | 1005.4 |
| 20260506070213 | 49 | 28 | 1.0 | 11.0 | 0.02 | 0.57 | 0.57 | 95 | 1005.4 |
| 20260506070211 | 49 | 28 | 1.0 | 11.0 | 0.03 | 0.65 | 0.65 | 93 | 5.1 |
| 20260506070203 | 49 | 28 | 6.0 | 11.0 | 0.02 | 0.57 | 0.57 | 95 | 1005.4 |
| 20260506062503 | 49 | 30 | 4.0 | 8.0 | 0.04 | 0.56 | 0.56 | 95 | 1005.1 |
| 20260506062305 | 49 | 37 | 2.0 | 12.0 | 0.05 | 0.56 | 0.56 | 95 | 1005.2 |
| 20260506062213 | 49 | 32 | 4.0 | 12.0 | 0.05 | 0.56 | 0.56 | 95 | 1005.1 |
| 20260506062211 | 49 | 37 | 3.0 | 12.0 | 0.05 | 0.56 | 0.56 | 95 | 1005.2 |
| 20260506062202 | 49 | 37 | 3.0 | 12.0 | 0.05 | 0.56 | 0.56 | 95 | 1005.2 |
| 20260506062103 | 49 | 5 | 3.0 | 12.0 | 0.04 | 0.55 | 0.55 | 95 | 1005.2 |
| 20260506062006 | 49 | 355 | 5.0 | 12.0 | 0.04 | 0.55 | 0.55 | 95 | 1005.1 |
| 20260506061802 | 49 | 22 | 3.0 | 9.0 | 0.04 | 0.55 | 0.55 | 95 | 1005.1 |
| 20260506061603 | 49 | 351 | 3.0 | 6.0 | 0.04 | 0.55 | 0.55 | 95 | 1005.1 |
| 20260506061505 | 49 | 26 | 0.0 | 6.0 | 0.05 | 0.55 | 0.55 | 95 | 1005.1 |
| 20260506061402 | 49 | 40 | 6.0 | 6.0 | 0.05 | 0.55 | 0.55 | 95 | 1005.1 |
| 20260506061213 | 49 | 24 | 3.0 | 6.0 | 0.05 | 0.55 | 0.55 | 95 | 1005.1 |
| 20260506061211 | 49 | 36 | 6.0 | 11.0 | 0.05 | 0.63 | 0.63 | 94 | 4.9 |
| 20260506061203 | 49 | 24 | 5.0 | 6.0 | 0.05 | 0.55 | 0.55 | 95 | 1005.1 |
| 20260506061005 | 49 | 45 | 0.0 | 6.0 | 0.05 | 0.55 | 0.55 | 95 | 1005.1 |
| 20260506060903 | 49 | 22 | 3.0 | 10.0 | 0.05 | 0.55 | 0.55 | 95 | 1005.0 |
| 20260506060704 | 49 | 13 | 7.0 | 10.0 | 0.05 | 0.55 | 0.55 | 95 | 1005.0 |
| 20260506060603 | 49 | 15 | 3.0 | 10.0 | 0.05 | 0.55 | 0.55 | 95 | 1005.1 |
| 20260506060402 | 49 | 25 | 4.0 | 6.0 | 0.05 | 0.55 | 0.55 | 95 | 1005.1 |
| 20260506060303 | 49 | 52 | 2.0 | 6.0 | 0.05 | 0.55 | 0.55 | 95 | 1005.1 |
| 20260506060213 | 49 | 31 | 4.0 | 8.0 | 0.05 | 0.55 | 0.55 | 95 | 1005.1 |
| 20260506060211 | 49 | 52 | 3.0 | 6.0 | 0.05 | 0.55 | 0.55 | 95 | 1005.1 |
| 20260506051303 | 48 | 28 | 3.0 | 5.0 | 0.04 | 0.51 | 0.51 | 95 | 1005.1 |
| 20260506051214 | 48 | 355 | 2.0 | 6.0 | 0.04 | 0.51 | 0.51 | 95 | 1005.1 |
| 20260506051211 | 48 | 355 | 2.0 | 6.0 | 0.04 | 0.57 | 0.57 | 93 | 4.8 |
| 20260506051004 | 48 | 11 | 2.0 | 4.0 | 0.04 | 0.51 | 0.51 | 95 | 1005.1 |
| 20260506050902 | 48 | 26 | 3.0 | 4.0 | 0.04 | 0.51 | 0.51 | 95 | 1005.1 |
| 20260506050802 | 48 | 43 | 3.0 | 4.0 | 0.04 | 0.51 | 0.51 | 95 | 1005.1 |
| 20260506050702 | 48 | 14 | 2.0 | 4.0 | 0.03 | 0.50 | 0.50 | 95 | 1005.1 |
| 20260506050603 | 48 | 349 | 3.0 | 4.0 | 0.03 | 0.50 | 0.50 | 95 | 1005.1 |
| 20260506050503 | 48 | 349 | 2.0 | 4.0 | 0.03 | 0.50 | 0.50 | 95 | 1005.1 |
| 20260506050215 | 48 | 351 | 2.0 | 3.0 | 0.03 | 0.50 | 0.50 | 95 | 1005.1 |
| 20260506050213 | 48 | 11 | 3.0 | 6.0 | 0.03 | 0.50 | 0.50 | 95 | 1005.1 |
| 20260506050211 | 48 | 11 | 2.0 | 5.0 | 0.04 | 0.57 | 0.57 | 94 | 4.8 |
| 20260506050203 | 48 | 351 | 2.0 | 3.0 | 0.03 | 0.50 | 0.50 | 95 | 1005.1 |
| 20260506045004 | 48 | 9 | 1.0 | 4.0 | 0.03 | 0.49 | 0.49 | 95 | 1005.1 |
| 20260506044902 | 48 | 337 | 3.0 | 4.0 | 0.03 | 0.49 | 0.49 | 95 | 1005.1 |
| 20260506044803 | 48 | 360 | 0.0 | 4.0 | 0.03 | 0.49 | 0.49 | 95 | 1005.1 |
| 20260506044603 | 48 | 5 | 2.0 | 5.0 | 0.04 | 0.49 | 0.49 | 95 | 1005.1 |
| 20260506044504 | 48 | 344 | 2.0 | 5.0 | 0.04 | 0.49 | 0.49 | 95 | 1005.1 |
| 20260506044403 | 48 | 355 | 3.0 | 5.0 | 0.03 | 0.48 | 0.48 | 95 | 1005.1 |
| 20260506044302 | 48 | 37 | 2.0 | 5.0 | 0.03 | 0.48 | 0.48 | 95 | 1005.1 |
| 20260506044211 | 48 | 355 | 3.0 | 5.0 | 0.04 | 0.55 | 0.55 | 94 | 4.9 |
| 20260506044103 | 48 | 346 | 2.0 | 4.0 | 0.03 | 0.48 | 0.48 | 95 | 1005.1 |
| 20260506043703 | 48 | 5 | 2.0 | 4.0 | 0.03 | 0.48 | 0.48 | 95 | 1005.1 |
| 20260506043603 | 48 | 17 | 2.0 | 3.0 | 0.04 | 0.48 | 0.48 | 95 | 1005.1 |
| 20260506043403 | 48 | 342 | 1.0 | 3.0 | 0.04 | 0.48 | 0.48 | 95 | 1005.1 |
| 20260506043302 | 48 | 339 | 3.0 | 3.0 | 0.04 | 0.48 | 0.48 | 95 | 1005.1 |
| 20260506043211 | 48 | 338 | 2.0 | 4.0 | 0.03 | 0.48 | 0.48 | 95 | 1005.1 |
| 20260506043203 | 48 | 338 | 2.0 | 4.0 | 0.03 | 0.48 | 0.48 | 95 | 1005.1 |
| 20260506043004 | 48 | 334 | 2.0 | 4.0 | 0.03 | 0.48 | 0.48 | 95 | 1005.1 |
| 20260506042903 | 48 | 333 | 3.0 | 4.0 | 0.03 | 0.48 | 0.48 | 95 | 1005.1 |
| 20260506042703 | 48 | 360 | 1.0 | 4.0 | 0.04 | 0.48 | 0.48 | 95 | 1005.1 |
| 20260506042506 | 48 | 5 | 2.0 | 4.0 | 0.04 | 0.48 | 0.48 | 95 | 1005.1 |
| 20260506042403 | 48 | 9 | 2.0 | 4.0 | 0.04 | 0.48 | 0.48 | 95 | 1005.1 |
| 20260506042211 | 48 | 31 | 2.0 | 4.0 | 0.04 | 0.48 | 0.48 | 95 | 1005.1 |
| 20260506042203 | 48 | 348 | 2.0 | 4.0 | 0.04 | 0.48 | 0.48 | 95 | 1005.1 |
| 20260506042104 | 48 | 350 | 1.0 | 4.0 | 0.04 | 0.48 | 0.48 | 95 | 1005.1 |
| 20260506042004 | 48 | 350 | 3.0 | 4.0 | 0.05 | 0.48 | 0.48 | 95 | 1005.1 |
| 20260506041903 | 48 | 351 | 3.0 | 4.0 | 0.05 | 0.48 | 0.48 | 95 | 1005.1 |
| 20260506041602 | 48 | 350 | 2.0 | 4.0 | 0.04 | 0.47 | 0.47 | 95 | 1005.1 |
| 20260506041505 | 48 | 350 | 3.0 | 4.0 | 0.04 | 0.47 | 0.47 | 95 | 1005.1 |
| 20260506041404 | 48 | 349 | 3.0 | 4.0 | 0.05 | 0.47 | 0.47 | 95 | 1005.1 |
| 20260506041302 | 48 | 339 | 2.0 | 4.0 | 0.05 | 0.47 | 0.47 | 95 | 1005.1 |
| 20260506041211 | 48 | 339 | 3.0 | 5.0 | 0.05 | 0.47 | 0.47 | 95 | 1005.1 |
| 20260506041203 | 48 | 335 | 3.0 | 4.0 | 0.05 | 0.47 | 0.47 | 95 | 1005.1 |
| 20260506041005 | 48 | 327 | 3.0 | 5.0 | 0.05 | 0.47 | 0.47 | 95 | 1005.1 |
| 20260506040902 | 48 | 339 | 2.0 | 5.0 | 0.05 | 0.47 | 0.47 | 95 | 1005.1 |
| 20260506040803 | 48 | 339 | 3.0 | 5.0 | 0.05 | 0.47 | 0.47 | 95 | 1005.1 |
| 20260506040703 | 48 | 339 | 4.0 | 5.0 | 0.05 | 0.47 | 0.47 | 95 | 1005.1 |
| 20260506040602 | 48 | 336 | 2.0 | 5.0 | 0.05 | 0.47 | 0.47 | 95 | 1005.2 |
| 20260506040505 | 48 | 315 | 2.0 | 5.0 | 0.05 | 0.47 | 0.47 | 95 | 1005.2 |
| 20260506040211 | 48 | 336 | 2.0 | 7.0 | 0.05 | 0.47 | 0.47 | 95 | 1005.1 |
| 20260506040005 | 48 | 355 | 5.0 | 7.0 | 0.05 | 0.46 | 0.46 | 95 | 1005.2 |
| 20260506035903 | 48 | 338 | 2.0 | 7.0 | 0.05 | 0.46 | 0.46 | 95 | 1005.1 |
| 20260506035802 | 48 | 351 | 3.0 | 6.0 | 0.05 | 0.46 | 0.46 | 95 | 1005.2 |
| 20260506035704 | 48 | 351 | 2.0 | 6.0 | 0.05 | 0.46 | 0.46 | 95 | 1005.2 |
| 20260506035603 | 48 | 344 | 4.0 | 6.0 | 0.05 | 0.46 | 0.46 | 95 | 1005.2 |
| 20260506035504 | 48 | 339 | 4.0 | 6.0 | 0.05 | 0.46 | 0.46 | 95 | 1005.2 |
| 20260506035402 | 48 | 346 | 2.0 | 6.0 | 0.05 | 0.46 | 0.46 | 95 | 1005.2 |
| 20260506035211 | 48 | 335 | 2.0 | 5.0 | 0.05 | 0.46 | 0.46 | 95 | 1005.2 |
| 20260506035202 | 48 | 335 | 3.0 | 3.0 | 0.05 | 0.46 | 0.46 | 95 | 1005.2 |
| 20260506035102 | 48 | 331 | 2.0 | 4.0 | 0.05 | 0.46 | 0.46 | 95 | 1005.1 |
| 20260506035003 | 48 | 327 | 2.0 | 4.0 | 0.05 | 0.46 | 0.46 | 95 | 1005.1 |
| 20260506034802 | 48 | 338 | 3.0 | 4.0 | 0.05 | 0.45 | 0.45 | 95 | 1005.1 |
| 20260506034702 | 48 | 338 | 1.0 | 4.0 | 0.05 | 0.45 | 0.45 | 95 | 1005.1 |
| 20260506034504 | 48 | 340 | 3.0 | 6.0 | 0.05 | 0.45 | 0.45 | 95 | 1005.2 |
| 20260506034405 | 48 | 338 | 1.0 | 6.0 | 0.05 | 0.45 | 0.45 | 95 | 1005.2 |
| 20260506034303 | 48 | 334 | 2.0 | 6.0 | 0.05 | 0.45 | 0.45 | 95 | 1005.2 |
| 20260506034211 | 48 | 341 | 3.0 | 6.0 | 0.05 | 0.45 | 0.45 | 95 | 1005.2 |
| 20260506034004 | 48 | 335 | 2.0 | 5.0 | 0.05 | 0.45 | 0.45 | 95 | 1005.2 |
| 20260506033903 | 48 | 317 | 3.0 | 5.0 | 0.05 | 0.45 | 0.45 | 95 | 1005.1 |
| 20260506033803 | 48 | 10 | 3.0 | 5.0 | 0.05 | 0.45 | 0.45 | 95 | 1005.2 |
| 20260506033603 | 48 | 335 | 2.0 | 8.0 | 0.05 | 0.45 | 0.45 | 95 | 1005.2 |
| 20260506033503 | 48 | 335 | 3.0 | 8.0 | 0.05 | 0.45 | 0.45 | 95 | 1005.2 |
| 20260506033303 | 48 | 328 | 4.0 | 8.0 | 0.05 | 0.45 | 0.45 | 95 | 1005.2 |
| 20260506033202 | 48 | 323 | 2.0 | 8.0 | 0.05 | 0.45 | 0.45 | 95 | 1005.2 |
| 20260506033006 | 48 | 325 | 2.0 | 5.0 | 0.05 | 0.45 | 0.45 | 95 | 1005.2 |
| 20260506032902 | 48 | 318 | 3.0 | 5.0 | 0.05 | 0.45 | 0.45 | 95 | 1005.2 |
| 20260506032802 | 48 | 17 | 3.0 | 5.0 | 0.05 | 0.45 | 0.45 | 95 | 1005.2 |
| 20260506032702 | 48 | 337 | 3.0 | 4.0 | 0.05 | 0.44 | 0.44 | 95 | 1005.2 |
| 20260506032603 | 48 | 348 | 1.0 | 4.0 | 0.05 | 0.44 | 0.44 | 95 | 1005.3 |
| 20260506032403 | 48 | 340 | 2.0 | 4.0 | 0.05 | 0.44 | 0.44 | 95 | 1005.3 |
| 20260506032305 | 48 | 37 | 2.0 | 5.0 | 0.05 | 0.44 | 0.44 | 95 | 1005.2 |
| 20260506032211 | 48 | 37 | 2.0 | 5.0 | 0.05 | 0.50 | 0.50 | 93 | 5.0 |
| 20260506032102 | 48 | 24 | 2.0 | 5.0 | 0.05 | 0.44 | 0.44 | 95 | 1005.2 |
| 20260506032004 | 48 | 28 | 2.0 | 5.0 | 0.04 | 0.43 | 0.43 | 95 | 1005.2 |
| 20260506031903 | 48 | 28 | 1.0 | 7.0 | 0.04 | 0.43 | 0.43 | 95 | 1005.3 |
| 20260506031803 | 48 | 355 | 2.0 | 7.0 | 0.04 | 0.43 | 0.43 | 95 | 1005.2 |
| 20260506031702 | 48 | 355 | 2.0 | 7.0 | 0.05 | 0.43 | 0.43 | 95 | 1005.3 |
| 20260506031505 | 48 | 15 | 2.0 | 7.0 | 0.05 | 0.43 | 0.43 | 95 | 1005.2 |
| 20260506031302 | 48 | 11 | 2.0 | 5.0 | 0.04 | 0.42 | 0.42 | 95 | 1005.3 |
| 20260506031211 | 48 | 355 | 3.0 | 7.0 | 0.05 | 0.47 | 0.47 | 93 | 5.0 |
| 20260506031003 | 48 | 24 | 0.0 | 7.0 | 0.04 | 0.42 | 0.42 | 95 | 1005.3 |
| 20260506030803 | 48 | 360 | 3.0 | 7.0 | 0.04 | 0.41 | 0.41 | 95 | 1005.3 |
| 20260506030504 | 48 | 333 | 3.0 | 6.0 | 0.04 | 0.41 | 0.41 | 95 | 1005.3 |
| 20260506030303 | 48 | 5 | 4.0 | 6.0 | 0.04 | 0.41 | 0.41 | 95 | 1005.4 |
| 20260506030211 | 48 | 5 | 3.0 | 6.0 | 0.04 | 0.41 | 0.41 | 95 | 1005.4 |
| 20260506030103 | 48 | 13 | 3.0 | 5.0 | 0.05 | 0.41 | 0.41 | 95 | 1005.4 |
| 20260506025903 | 48 | 360 | 3.0 | 5.0 | 0.05 | 0.41 | 0.41 | 95 | 1005.4 |
| 20260506025802 | 48 | 350 | 3.0 | 5.0 | 0.04 | 0.41 | 0.41 | 95 | 1005.4 |
| 20260506025603 | 48 | 22 | 3.0 | 8.0 | 0.04 | 0.41 | 0.41 | 95 | 1005.4 |
| 20260506025503 | 48 | 5 | 2.0 | 8.0 | 0.04 | 0.41 | 0.41 | 95 | 1005.5 |
| 20260506025305 | 48 | 5 | 3.0 | 8.0 | 0.04 | 0.41 | 0.41 | 95 | 1005.5 |
| 20260506025202 | 48 | 9 | 2.0 | 8.0 | 0.04 | 0.41 | 0.41 | 95 | 1005.5 |
| 20260506025103 | 48 | 17 | 3.0 | 8.0 | 0.05 | 0.41 | 0.41 | 95 | 1005.5 |
| 20260506024903 | 48 | 5 | 2.0 | 5.0 | 0.05 | 0.41 | 0.41 | 95 | 1005.5 |
| 20260506024803 | 48 | 34 | 3.0 | 5.0 | 0.05 | 0.41 | 0.41 | 95 | 1005.6 |
| 20260506024702 | 48 | 24 | 3.0 | 5.0 | 0.05 | 0.41 | 0.41 | 95 | 1005.5 |
| 20260506024603 | 48 | 355 | 2.0 | 5.0 | 0.05 | 0.41 | 0.41 | 95 | 1005.6 |
| 20260506024503 | 48 | 30 | 2.0 | 4.0 | 0.05 | 0.41 | 0.41 | 95 | 1005.5 |
| 20260506024403 | 48 | 11 | 2.0 | 3.0 | 0.05 | 0.41 | 0.41 | 95 | 1005.5 |
| 20260506024302 | 48 | 355 | 2.0 | 3.0 | 0.05 | 0.41 | 0.41 | 95 | 1005.6 |
| 20260506024210 | 48 | 355 | 2.0 | 3.0 | 0.05 | 0.41 | 0.41 | 95 | 1005.6 |
| 20260506024203 | 49 | 12 | 1.0 | 3.0 | 0.05 | 0.41 | 0.41 | 95 | 1005.5 |
| 20260506024103 | 48 | 360 | 1.0 | 4.0 | 0.05 | 0.41 | 0.41 | 95 | 1005.5 |
| 20260506024005 | 49 | 360 | 2.0 | 4.0 | 0.05 | 0.40 | 0.40 | 95 | 1005.5 |
| 20260506023904 | 48 | 360 | 2.0 | 4.0 | 0.05 | 0.40 | 0.40 | 95 | 1005.6 |
| 20260506023702 | 49 | 360 | 2.0 | 4.0 | 0.05 | 0.40 | 0.40 | 95 | 1005.6 |
| 20260506023602 | 49 | 323 | 2.0 | 4.0 | 0.05 | 0.40 | 0.40 | 95 | 1005.6 |
| 20260506023403 | 49 | 349 | 2.0 | 4.0 | 0.05 | 0.40 | 0.40 | 95 | 1005.6 |
| 20260506023210 | 49 | 337 | 2.0 | 4.0 | 0.05 | 0.40 | 0.40 | 95 | 1005.7 |
| 20260506023202 | 49 | 343 | 2.0 | 4.0 | 0.05 | 0.40 | 0.40 | 95 | 1005.6 |
| 20260506023103 | 49 | 19 | 2.0 | 4.0 | 0.05 | 0.40 | 0.40 | 95 | 1005.7 |
| 20260506023004 | 49 | 19 | 1.0 | 4.0 | 0.05 | 0.40 | 0.40 | 95 | 1005.7 |
| 20260506022902 | 49 | 19 | 2.0 | 4.0 | 0.05 | 0.40 | 0.40 | 95 | 1005.7 |
| 20260506022702 | 49 | 19 | 2.0 | 4.0 | 0.05 | 0.39 | 0.39 | 95 | 1005.7 |
| 20260506022506 | 49 | 18 | 2.0 | 5.0 | 0.05 | 0.39 | 0.39 | 95 | 1005.7 |
| 20260506022402 | 49 | 19 | 3.0 | 5.0 | 0.05 | 0.39 | 0.39 | 95 | 1005.7 |
| 20260506022305 | 49 | 25 | 3.0 | 5.0 | 0.05 | 0.39 | 0.39 | 95 | 1005.7 |
| 20260506022211 | 49 | 25 | 2.0 | 4.0 | 0.05 | 0.39 | 0.39 | 95 | 1005.7 |
| 20260506022203 | 49 | 28 | 1.0 | 5.0 | 0.05 | 0.39 | 0.39 | 95 | 1005.7 |
| 20260506022103 | 49 | 314 | 2.0 | 3.0 | 0.05 | 0.39 | 0.39 | 95 | 1005.8 |
| 20260506021803 | 49 | 314 | 2.0 | 3.0 | 0.06 | 0.39 | 0.39 | 95 | 1005.7 |
| 20260506021702 | 49 | 314 | 2.0 | 5.0 | 0.05 | 0.38 | 0.38 | 95 | 1005.7 |
| 20260506021602 | 49 | 314 | 3.0 | 5.0 | 0.05 | 0.38 | 0.38 | 95 | 1005.7 |
| 20260506021403 | 49 | 313 | 3.0 | 5.0 | 0.05 | 0.38 | 0.38 | 95 | 1005.8 |
| 20260506021304 | 49 | 313 | 2.0 | 5.0 | 0.05 | 0.38 | 0.38 | 95 | 1005.7 |
| 20260506021211 | 49 | 313 | 3.0 | 4.0 | 0.05 | 0.38 | 0.38 | 95 | 1005.7 |
| 20260506021103 | 49 | 316 | 2.0 | 4.0 | 0.06 | 0.38 | 0.38 | 95 | 1005.7 |
| 20260506020904 | 49 | 339 | 2.0 | 4.0 | 0.05 | 0.38 | 0.38 | 95 | 1005.7 |
| 20260506020703 | 49 | 347 | 2.0 | 3.0 | 0.05 | 0.38 | 0.38 | 95 | 1005.7 |
| 20260506020603 | 49 | 360 | 0.0 | 3.0 | 0.05 | 0.38 | 0.38 | 95 | 1005.7 |
| 20260506020402 | 49 | 346 | 2.0 | 3.0 | 0.06 | 0.38 | 0.38 | 95 | 1005.7 |
| 20260506020302 | 49 | 346 | 1.0 | 3.0 | 0.06 | 0.38 | 0.38 | 95 | 1005.8 |
| 20260506020212 | 49 | 346 | 2.0 | 3.0 | 0.06 | 0.42 | 0.42 | 93 | 5.5 |
| 20260506020210 | 49 | 346 | 2.0 | 3.0 | 0.06 | 0.38 | 0.38 | 95 | 1005.8 |
| 20260506020204 | 49 | 346 | 2.0 | 3.0 | 0.06 | 0.38 | 0.38 | 95 | 1005.8 |
| 20260506020005 | 49 | 346 | 2.0 | 4.0 | 0.05 | 0.37 | 0.37 | 95 | 1005.7 |
| 20260506015903 | 49 | 349 | 1.0 | 4.0 | 0.05 | 0.37 | 0.37 | 95 | 1005.8 |
| 20260506015702 | 49 | 43 | 2.0 | 5.0 | 0.06 | 0.37 | 0.37 | 95 | 1005.8 |
| 20260506015603 | 49 | 43 | 1.0 | 5.0 | 0.06 | 0.37 | 0.37 | 95 | 1005.7 |
| 20260506015503 | 49 | 360 | 2.0 | 5.0 | 0.06 | 0.37 | 0.37 | 95 | 1005.8 |
| 20260506015212 | 49 | 360 | 3.0 | 5.0 | 0.07 | 0.41 | 0.41 | 93 | 5.5 |
| 20260506015210 | 49 | 360 | 3.0 | 5.0 | 0.06 | 0.37 | 0.37 | 95 | 1005.8 |
| 20260506015202 | 49 | 5 | 2.0 | 5.0 | 0.07 | 0.37 | 0.37 | 95 | 1005.8 |
| 20260506015102 | 49 | 5 | 3.0 | 5.0 | 0.06 | 0.36 | 0.36 | 95 | 1005.7 |
| 20260506015003 | 49 | 5 | 2.0 | 5.0 | 0.06 | 0.36 | 0.36 | 95 | 1005.7 |
| 20260506014904 | 49 | 5 | 2.0 | 3.0 | 0.06 | 0.36 | 0.36 | 95 | 1005.8 |
| 20260506014702 | 49 | 5 | 2.0 | 7.0 | 0.07 | 0.36 | 0.36 | 95 | 1005.8 |
| 20260506014603 | 49 | 5 | 2.0 | 7.0 | 0.07 | 0.36 | 0.36 | 95 | 1005.7 |
| 20260506014503 | 49 | 5 | 3.0 | 7.0 | 0.07 | 0.36 | 0.36 | 95 | 1005.7 |
| 20260506014302 | 49 | 5 | 3.0 | 7.0 | 0.06 | 0.35 | 0.35 | 95 | 1005.8 |
| 20260506014212 | 49 | 5 | 4.0 | 7.0 | 0.08 | 0.40 | 0.40 | 93 | 5.5 |
| 20260506014203 | 49 | 24 | 2.0 | 6.0 | 0.07 | 0.35 | 0.35 | 95 | 1005.8 |
| 20260506013903 | 49 | 27 | 5.0 | 6.0 | 0.07 | 0.35 | 0.35 | 95 | 1005.8 |
| 20260506013803 | 49 | 44 | 2.0 | 6.0 | 0.07 | 0.35 | 0.35 | 95 | 1005.8 |
| 20260506013702 | 49 | 26 | 2.0 | 4.0 | 0.07 | 0.35 | 0.35 | 95 | 1005.8 |
| 20260506013603 | 49 | 27 | 2.0 | 4.0 | 0.07 | 0.35 | 0.35 | 95 | 1005.8 |
| 20260506013504 | 49 | 32 | 3.0 | 4.0 | 0.08 | 0.35 | 0.35 | 95 | 1005.8 |
| 20260506013404 | 49 | 36 | 2.0 | 4.0 | 0.07 | 0.35 | 0.35 | 95 | 1005.8 |
| 20260506013302 | 49 | 38 | 2.0 | 4.0 | 0.07 | 0.35 | 0.35 | 95 | 1005.8 |
| 20260506013212 | 49 | 38 | 2.0 | 4.0 | 0.08 | 0.40 | 0.40 | 93 | 5.6 |
| 20260506013210 | 49 | 38 | 2.0 | 4.0 | 0.07 | 0.35 | 0.35 | 95 | 1005.8 |
| 20260506013202 | 49 | 360 | 2.0 | 3.0 | 0.07 | 0.35 | 0.35 | 95 | 1005.9 |
| 20260506013103 | 49 | 360 | 2.0 | 4.0 | 0.07 | 0.35 | 0.35 | 95 | 1005.9 |
| 20260506013005 | 49 | 347 | 2.0 | 4.0 | 0.07 | 0.35 | 0.35 | 95 | 1005.9 |
| 20260506012903 | 49 | 346 | 2.0 | 4.0 | 0.07 | 0.35 | 0.35 | 95 | 1005.9 |
| 20260506012802 | 49 | 24 | 3.0 | 4.0 | 0.07 | 0.35 | 0.35 | 95 | 1005.9 |
| 20260506012703 | 49 | 24 | 2.0 | 4.0 | 0.06 | 0.34 | 0.34 | 95 | 1005.9 |
| 20260506012504 | 49 | 22 | 2.0 | 4.0 | 0.07 | 0.34 | 0.34 | 95 | 1005.9 |
| 20260506012403 | 49 | 27 | 1.0 | 4.0 | 0.07 | 0.34 | 0.34 | 95 | 1005.9 |
| 20260506012212 | 49 | 31 | 1.0 | 4.0 | 0.07 | 0.38 | 0.38 | 93 | 5.6 |
| 20260506012210 | 49 | 31 | 1.0 | 4.0 | 0.07 | 0.34 | 0.34 | 95 | 1005.8 |
| 20260506012203 | 49 | 31 | 2.0 | 4.0 | 0.07 | 0.34 | 0.34 | 95 | 1005.9 |
| 20260506012103 | 49 | 360 | 2.0 | 4.0 | 0.07 | 0.34 | 0.34 | 95 | 1005.9 |
| 20260506012004 | 49 | 355 | 3.0 | 4.0 | 0.06 | 0.33 | 0.33 | 95 | 1005.9 |
| 20260506011902 | 49 | 355 | 2.0 | 4.0 | 0.06 | 0.33 | 0.33 | 95 | 1005.9 |
| 20260506011802 | 49 | 24 | 1.0 | 3.0 | 0.06 | 0.33 | 0.33 | 95 | 1005.9 |
| 20260506011703 | 49 | 24 | 1.0 | 6.0 | 0.07 | 0.33 | 0.33 | 95 | 1005.9 |
| 20260506011602 | 49 | 24 | 2.0 | 6.0 | 0.07 | 0.33 | 0.33 | 95 | 1005.9 |
| 20260506011505 | 49 | 24 | 1.0 | 6.0 | 0.07 | 0.33 | 0.33 | 95 | 1005.9 |
| 20260506011302 | 49 | 45 | 2.0 | 6.0 | 0.07 | 0.33 | 0.33 | 95 | 1005.9 |
| 20260506011212 | 49 | 45 | 3.0 | 6.0 | 0.08 | 0.37 | 0.37 | 93 | 5.6 |
| 20260506011210 | 49 | 45 | 3.0 | 6.0 | 0.07 | 0.33 | 0.33 | 95 | 1005.9 |
| 20260506011103 | 49 | 31 | 2.0 | 6.0 | 0.06 | 0.32 | 0.32 | 95 | 1005.9 |
| 20260506010803 | 49 | 360 | 3.0 | 6.0 | 0.07 | 0.32 | 0.32 | 95 | 1005.9 |
| 20260506010703 | 49 | 25 | 4.0 | 6.0 | 0.07 | 0.32 | 0.32 | 95 | 1005.9 |
| 20260506010602 | 49 | 316 | 3.0 | 6.0 | 0.07 | 0.32 | 0.32 | 95 | 1005.9 |
| 20260506010505 | 49 | 329 | 2.0 | 4.0 | 0.07 | 0.32 | 0.32 | 95 | 1005.9 |
| 20260506010302 | 49 | 31 | 0.0 | 3.0 | 0.06 | 0.31 | 0.31 | 95 | 1005.9 |
| 20260506010210 | 49 | 31 | 2.0 | 3.0 | 0.06 | 0.31 | 0.31 | 95 | 1005.9 |
| 20260506010103 | 49 | 31 | 1.0 | 8.0 | 0.07 | 0.31 | 0.31 | 95 | 1005.9 |
| 20260506010005 | 49 | 35 | 2.0 | 8.0 | 0.07 | 0.31 | 0.31 | 95 | 1005.9 |
| 20260506005802 | 49 | 36 | 5.0 | 8.0 | 0.06 | 0.31 | 0.31 | 95 | 1006.0 |
| 20260506005702 | 49 | 25 | 4.0 | 6.0 | 0.06 | 0.31 | 0.31 | 95 | 1006.0 |
| 20260506005403 | 49 | 360 | 3.0 | 6.0 | 0.06 | 0.31 | 0.31 | 95 | 1006.0 |
| 20260506005305 | 49 | 355 | 2.0 | 6.0 | 0.06 | 0.31 | 0.31 | 95 | 1006.0 |
| 20260506005203 | 49 | 5 | 3.0 | 4.0 | 0.06 | 0.30 | 0.30 | 95 | 1006.1 |
| 20260506005103 | 49 | 360 | 1.0 | 5.0 | 0.06 | 0.30 | 0.30 | 95 | 1006.1 |
| 20260506005005 | 49 | 11 | 2.0 | 5.0 | 0.06 | 0.30 | 0.30 | 95 | 1006.1 |
| 20260506004902 | 49 | 10 | 2.0 | 5.0 | 0.06 | 0.30 | 0.30 | 95 | 1006.1 |
| 20260506004803 | 49 | 355 | 3.0 | 5.0 | 0.05 | 0.29 | 0.29 | 95 | 1006.1 |
| 20260506004604 | 49 | 11 | 3.0 | 5.0 | 0.05 | 0.29 | 0.29 | 95 | 1006.1 |
| 20260506004403 | 49 | 355 | 3.0 | 5.0 | 0.05 | 0.29 | 0.29 | 95 | 1006.1 |
| 20260506004303 | 49 | 19 | 2.0 | 5.0 | 0.06 | 0.29 | 0.29 | 95 | 1006.1 |
| 20260506004213 | 49 | 18 | 3.0 | 5.0 | 0.06 | 0.33 | 0.33 | 93 | 5.8 |
| 20260506004210 | 49 | 19 | 3.0 | 5.0 | 0.06 | 0.29 | 0.29 | 95 | 1006.1 |
| 20260506004203 | 49 | 24 | 2.0 | 4.0 | 0.05 | 0.28 | 0.28 | 95 | 1006.1 |
| 20260506004102 | 49 | 24 | 3.0 | 4.0 | 0.05 | 0.28 | 0.28 | 95 | 1006.2 |
| 20260506004002 | 49 | 26 | 2.0 | 4.0 | 0.05 | 0.28 | 0.28 | 95 | 1006.1 |
| 20260506003903 | 49 | 19 | 2.0 | 3.0 | 0.05 | 0.28 | 0.28 | 95 | 1006.1 |
| 20260506003803 | 49 | 19 | 1.0 | 3.0 | 0.06 | 0.28 | 0.28 | 95 | 1006.2 |
| 20260506003504 | 49 | 19 | 3.0 | 4.0 | 0.05 | 0.28 | 0.28 | 95 | 1006.2 |
| 20260506003404 | 49 | 19 | 2.0 | 4.0 | 0.05 | 0.28 | 0.28 | 95 | 1006.2 |
| 20260506003303 | 49 | 19 | 2.0 | 4.0 | 0.06 | 0.28 | 0.28 | 95 | 1006.2 |
| 20260506003203 | 49 | 19 | 3.0 | 4.0 | 0.06 | 0.28 | 0.28 | 95 | 1006.2 |
| 20260506003005 | 49 | 20 | 3.0 | 4.0 | 0.06 | 0.28 | 0.28 | 95 | 1006.2 |
| 20260506002902 | 49 | 19 | 2.0 | 4.0 | 0.06 | 0.28 | 0.28 | 95 | 1006.2 |
| 20260506002803 | 49 | 30 | 2.0 | 4.0 | 0.07 | 0.28 | 0.28 | 95 | 1006.2 |
| 20260506002703 | 49 | 28 | 2.0 | 4.0 | 0.07 | 0.28 | 0.28 | 95 | 1006.2 |
| 20260506002403 | 49 | 16 | 3.0 | 4.0 | 0.07 | 0.27 | 0.27 | 95 | 1006.3 |
| 20260506002306 | 49 | 5 | 3.0 | 6.0 | 0.07 | 0.27 | 0.27 | 95 | 1006.3 |
| 20260506002203 | 49 | 40 | 3.0 | 6.0 | 0.07 | 0.27 | 0.27 | 95 | 1006.3 |
| 20260506002004 | 49 | 360 | 4.0 | 6.0 | 0.08 | 0.27 | 0.27 | 95 | 1006.3 |
| 20260506001903 | 49 | 30 | 2.0 | 6.0 | 0.08 | 0.27 | 0.27 | 95 | 1006.3 |
| 20260506001802 | 49 | 23 | 4.0 | 6.0 | 0.08 | 0.27 | 0.27 | 95 | 1006.3 |
| 20260506001702 | 49 | 32 | 3.0 | 6.0 | 0.08 | 0.26 | 0.26 | 95 | 1006.3 |
| 20260506001504 | 49 | 30 | 2.0 | 6.0 | 0.08 | 0.26 | 0.26 | 95 | 1006.3 |
| 20260506001402 | 49 | 13 | 3.0 | 4.0 | 0.08 | 0.26 | 0.26 | 95 | 1006.3 |
| 20260506001302 | 49 | 46 | 3.0 | 4.0 | 0.08 | 0.26 | 0.26 | 95 | 1006.3 |
| 20260506001202 | 49 | 355 | 2.0 | 5.0 | 0.08 | 0.26 | 0.26 | 95 | 1006.4 |
| 20260506001102 | 49 | 5 | 2.0 | 5.0 | 0.08 | 0.26 | 0.26 | 95 | 1006.4 |
| 20260506000903 | 50 | 350 | 3.0 | 5.0 | 0.08 | 0.25 | 0.25 | 95 | 1006.4 |
| 20260506000702 | 50 | 350 | 2.0 | 5.0 | 0.08 | 0.25 | 0.25 | 95 | 1006.4 |
| 20260506000602 | 50 | 339 | 2.0 | 5.0 | 0.09 | 0.25 | 0.25 | 95 | 1006.4 |
| 20260506000503 | 50 | 338 | 3.0 | 5.0 | 0.09 | 0.25 | 0.25 | 95 | 1006.4 |
| 20260506000402 | 50 | 5 | 2.0 | 5.0 | 0.09 | 0.25 | 0.25 | 95 | 1006.4 |
| 20260506000213 | 50 | 13 | 2.0 | 5.0 | 0.12 | 0.29 | 0.29 | 93 | 6.2 |
| 20260506000211 | 50 | 13 | 2.0 | 5.0 | 0.10 | 0.25 | 0.25 | 95 | 1006.4 |
| 20260506000004 | 50 | 17 | 3.0 | 5.0 | 0.10 | 0.25 | 0.25 | 95 | 1006.4 |
| 20260505235903 | 50 | 18 | 2.0 | 6.0 | 0.11 | 0.25 | 0.25 | 95 | 1006.4 |
| 20260505235603 | 50 | 29 | 4.0 | 6.0 | 0.12 | 0.25 | 0.25 | 95 | 1006.5 |
| 20260505235504 | 50 | 31 | 2.0 | 6.0 | 0.12 | 0.25 | 0.25 | 95 | 1006.5 |
| 20260505235305 | 50 | 26 | 3.0 | 5.0 | 0.14 | 0.25 | 0.25 | 95 | 1006.5 |
| 20260505235213 | 49 | 26 | 3.0 | 5.0 | 0.16 | 0.28 | 0.28 | 93 | 6.2 |
| 20260505235211 | 50 | 26 | 3.0 | 5.0 | 0.13 | 0.25 | 0.25 | 95 | 1006.5 |
| 20260505235004 | 50 | 21 | 3.0 | 8.0 | 0.15 | 0.24 | 0.24 | 95 | 1006.5 |
| 20260505234803 | 50 | 16 | 4.0 | 8.0 | 0.15 | 0.24 | 0.24 | 95 | 1006.5 |
| 20260505234603 | 50 | 25 | 4.0 | 8.0 | 0.16 | 0.24 | 0.24 | 95 | 1006.6 |
| 20260505234504 | 50 | 360 | 3.0 | 7.0 | 0.16 | 0.24 | 0.24 | 95 | 1006.5 |
| 20260505234403 | 50 | 9 | 2.0 | 7.0 | 0.17 | 0.24 | 0.24 | 95 | 1006.6 |
| 20260505234302 | 50 | 19 | 4.0 | 7.0 | 0.16 | 0.23 | 0.23 | 95 | 1006.6 |
| 20260505234213 | 49 | 19 | 2.0 | 7.0 | 0.19 | 0.26 | 0.26 | 93 | 6.3 |
| 20260505234210 | 50 | 19 | 2.0 | 6.0 | 0.16 | 0.23 | 0.23 | 95 | 1006.6 |
| 20260505234203 | 50 | 22 | 4.0 | 7.0 | 0.16 | 0.23 | 0.23 | 95 | 1006.6 |
| 20260505234103 | 50 | 30 | 4.0 | 7.0 | 0.17 | 0.23 | 0.23 | 95 | 1006.6 |
| 20260505234003 | 50 | 13 | 3.0 | 10.0 | 0.17 | 0.23 | 0.23 | 95 | 1006.6 |
| 20260505233903 | 50 | 21 | 4.0 | 10.0 | 0.18 | 0.23 | 0.23 | 95 | 1006.6 |
| 20260505233802 | 50 | 32 | 4.0 | 10.0 | 0.17 | 0.22 | 0.22 | 95 | 1006.7 |
| 20260505233603 | 50 | 23 | 3.0 | 10.0 | 0.17 | 0.22 | 0.22 | 95 | 1006.6 |